GFSNE_sfc_wetblb_000.txt.gz
Wetbulb
40.56 39.92 38.75 38.93 39.87 39.85 39.06 39.04 36.08 32.29 31.97 35.10 40.13 43.58 45.69 46.31 47.05 45.59 45.32 44.41 44.11 44.78 44.67 44.67 46.40 46.00 45.77 45.82 46.83 47.84 48.79 49.75 50.35 50.69 50.86 50.99 51.87 52.46
39.86 39.71 38.98 39.53 39.45 39.30 38.80 38.73 38.20 35.80 32.46 36.26 37.44 39.68 41.64 43.39 45.22 45.63 45.12 45.78 43.83 43.37 43.08 42.57 43.39 44.36 44.73 44.70 45.19 45.69 46.36 46.81 48.15 49.90 49.56 48.41 48.75 49.40
37.89 38.62 38.42 38.62 38.11 38.08 38.05 37.12 35.65 35.04 32.55 34.69 37.57 38.80 39.11 40.51 41.45 41.94 43.71 42.62 42.15 42.61 41.79 41.82 42.08 42.33 43.10 42.64 42.39 42.65 43.59 45.00 46.10 46.99 48.55 47.99 47.66 48.01
36.97 36.82 36.74 38.31 36.50 36.19 36.29 35.63 35.05 35.18 32.92 30.99 33.07 34.77 34.57 36.85 38.31 39.55 42.13 42.90 41.73 43.07 42.31 41.84 41.61 41.21 41.53 41.22 41.01 41.03 41.54 42.13 43.20 44.38 45.00 46.43 47.15 47.45
33.60 33.56 34.40 34.40 32.91 33.12 33.67 33.19 34.15 35.37 33.75 32.21 30.66 32.93 33.56 34.76 35.47 37.21 38.18 38.28 41.60 42.96 41.74 40.98 41.37 41.52 41.32 40.51 40.73 40.81 40.96 41.27 41.62 41.83 42.00 42.33 43.27 43.94
32.15 31.82 32.46 33.18 33.06 32.62 32.50 31.24 32.13 29.74 29.77 29.62 29.60 30.28 31.12 33.16 34.04 32.46 32.10 34.86 35.26 39.75 40.16 39.31 40.57 41.24 41.30 40.87 40.53 40.75 41.04 41.53 41.59 41.50 40.76 39.76 39.71 41.18
29.79 30.84 31.82 33.68 36.09 33.53 32.77 29.80 28.60 27.19 26.85 27.27 27.28 28.43 29.45 29.71 30.22 33.32 32.43 32.94 34.22 35.87 34.91 34.89 35.45 37.66 38.91 40.67 40.60 40.85 40.79 40.88 41.19 41.37 41.49 40.91 40.02 40.18
26.87 28.19 29.93 32.73 33.04 34.41 34.54 33.63 30.88 26.34 25.77 25.40 25.18 24.93 26.37 28.36 29.87 29.24 28.17 27.19 25.81 32.98 31.48 30.41 34.09 33.64 36.46 39.06 40.02 38.59 38.71 39.87 40.42 40.57 40.78 40.80 40.39 39.02
26.24 27.11 28.56 31.43 31.56 31.39 31.40 31.37 31.10 32.29 31.61 27.59 25.45 25.60 25.36 26.85 27.64 26.58 25.91 26.00 25.92 29.58 29.60 27.22 29.54 29.40 33.10 36.97 38.67 38.27 37.71 37.86 37.66 38.46 39.21 38.90 39.16 38.07
26.07 26.04 26.52 27.09 28.70 29.34 27.84 26.55 27.05 27.81 28.85 29.25 28.14 28.05 28.72 29.10 29.06 29.39 28.77 29.34 28.09 29.13 30.27 26.50 28.11 27.46 30.42 31.42 37.32 38.18 37.68 37.33 37.50 37.46 37.71 38.13 38.34 37.84
26.11 26.57 27.47 26.74 28.79 30.21 27.24 26.02 25.89 26.90 30.87 32.18 32.50 32.42 32.39 32.63 32.29 29.35 26.57 26.30 24.95 26.95 28.28 27.44 25.60 25.46 25.98 26.12 30.13 37.20 37.04 36.98 37.35 37.47 37.87 38.36 37.99 37.34
25.74 26.58 27.86 28.02 27.99 28.25 27.19 26.95 25.16 26.82 27.02 27.58 26.87 27.61 29.48 30.73 32.96 31.79 28.92 24.61 23.77 23.17 27.93 27.69 27.14 27.03 25.95 26.43 29.24 31.97 27.62 35.04 36.15 36.94 37.53 38.06 37.76 34.31
23.41 23.77 25.92 28.98 27.68 26.97 26.62 24.94 24.49 25.95 25.23 24.74 24.80 25.04 26.33 27.38 28.36 29.78 31.18 29.65 25.37 24.59 28.75 29.68 28.35 26.32 28.61 25.44 24.77 27.70 30.07 30.26 30.72 33.41 36.89 37.09 37.24 36.41
23.03 25.44 25.42 27.32 26.75 26.44 25.97 26.40 26.55 25.32 23.17 22.94 24.05 24.67 25.91 26.72 29.09 29.60 30.29 31.75 32.55 30.03 31.40 31.92 29.91 26.27 25.10 25.37 25.95 27.25 28.34 29.66 29.89 31.09 31.63 35.45 36.27 36.34
24.27 24.95 26.17 26.28 25.90 25.90 27.11 26.54 25.34 24.44 24.92 23.99 23.67 25.18 26.89 28.09 29.15 28.69 30.53 31.40 31.66 31.77 33.24 32.23 31.19 29.01 27.77 26.65 26.07 24.77 25.40 27.92 31.86 34.01 31.12 30.76 28.71 31.96
22.75 23.09 25.03 24.30 24.05 24.87 25.63 25.63 25.90 26.26 24.09 24.43 24.54 26.07 27.97 27.59 28.21 29.48 30.11 29.18 28.57 27.22 30.82 31.96 31.06 30.61 28.42 27.99 28.25 26.08 24.63 25.26 28.72 33.53 33.95 31.04 29.99 35.17
21.86 22.79 21.51 20.42 20.77 22.81 22.56 23.38 24.34 23.95 23.56 23.52 24.62 25.49 26.40 27.13 27.12 27.03 29.44 26.58 26.56 25.98 26.68 28.02 31.10 31.49 29.98 28.81 26.61 26.65 26.64 24.98 27.05 31.70 32.31 31.48 31.06 33.39
21.75 19.63 18.40 18.97 19.26 20.70 20.76 20.82 21.60 22.56 22.48 23.38 23.43 24.55 24.70 25.03 25.92 27.12 30.60 26.42 23.21 23.72 26.67 27.91 30.98 29.52 28.20 27.11 31.50 27.49 23.98 25.38 27.09 29.28 32.28 31.10 30.59 29.93
19.14 18.94 18.63 17.84 18.24 19.00 19.29 19.58 19.94 22.02 22.82 22.94 23.54 23.48 23.82 24.46 25.74 25.78 26.68 26.09 25.91 28.49 24.62 30.87 27.89 27.50 25.26 22.37 26.12 29.91 27.48 26.50 27.94 24.95 26.66 26.62 29.69 31.42
18.45 17.67 17.40 17.87 17.91 18.08 18.56 19.15 20.16 20.64 20.65 21.01 22.62 23.49 22.05 24.07 25.06 23.12 24.40 25.84 26.22 26.58 27.95 26.20 23.95 24.81 24.94 24.43 25.71 22.19 28.98 27.52 27.76 26.11 26.60 30.00 27.32 29.60
17.15 17.22 17.49 17.89 17.91 18.16 18.17 18.68 19.45 20.61 19.49 19.61 20.26 22.46 23.62 24.17 23.17 24.00 24.12 21.43 22.71 24.54 22.85 23.32 22.33 24.25 25.24 25.27 22.69 23.35 20.47 27.41 25.83 25.02 25.66 26.09 27.89 25.61
16.56 17.14 17.83 17.93 17.56 17.52 17.21 17.47 18.10 18.08 18.43 18.46 18.38 20.15 22.16 23.90 23.59 23.30 23.67 23.14 23.92 22.21 23.93 24.82 26.96 25.85 25.38 24.14 23.99 19.66 20.89 21.18 24.97 26.80 26.72 25.71 22.11 21.92
14.33 16.57 17.18 16.66 16.73 16.49 16.69 15.80 16.07 16.04 16.14 16.64 16.84 18.05 20.63 21.38 22.57 23.85 22.19 23.40 22.59 19.98 18.97 23.65 23.57 25.76 24.68 22.48 20.46 21.88 16.16 20.24 23.48 22.28 20.16 26.30 26.42 26.47

GFSNE_sfc_wetblb_003.txt.gz
Wetbulb
37.42 37.80 38.24 38.41 36.98 37.26 38.11 38.99 36.22 31.09 31.26 33.01 34.32 38.05 41.12 42.84 44.52 46.95 47.59 46.43 44.34 44.15 44.86 44.09 46.59 45.60 45.38 45.40 46.32 47.41 48.94 50.32 51.02 51.42 50.82 50.09 51.36 52.10
37.03 36.83 36.71 37.82 39.84 39.14 38.05 37.08 36.35 34.47 30.75 33.23 35.20 37.51 39.30 40.91 43.16 44.46 44.70 46.87 44.21 43.28 43.06 42.52 43.21 44.16 44.01 44.47 44.75 45.09 45.71 46.60 47.35 48.33 49.26 48.60 47.97 48.77
35.89 36.08 35.96 37.13 36.58 37.94 37.83 36.83 35.74 34.79 31.35 33.21 33.77 35.45 35.34 35.63 37.71 40.64 43.56 42.39 44.11 43.31 42.29 41.50 41.45 42.02 42.33 42.42 42.26 42.66 43.50 44.39 44.66 45.18 46.02 47.81 47.88 47.67
31.64 31.33 31.47 33.89 32.02 33.95 35.48 35.53 34.56 34.80 33.05 29.29 30.16 31.77 32.60 34.70 36.07 37.60 40.82 41.65 42.57 43.22 42.40 41.60 41.65 41.08 40.86 41.11 40.96 41.00 41.46 41.75 42.09 43.14 43.61 44.02 45.35 46.86
29.82 29.29 29.19 29.35 28.72 30.27 31.05 30.45 30.85 32.24 29.28 28.69 26.78 29.66 30.86 32.84 32.95 34.54 37.00 37.99 40.40 43.38 42.21 41.27 41.45 41.52 41.34 40.88 40.93 40.83 40.94 40.83 40.74 41.27 41.80 41.79 42.32 42.82
28.86 28.66 28.67 28.48 28.49 29.11 30.63 30.08 30.82 26.60 26.40 25.61 26.45 27.15 28.07 31.02 31.82 30.67 31.49 34.06 34.30 38.22 39.07 39.35 40.31 41.07 41.42 40.84 40.50 40.75 40.79 41.14 41.13 40.87 40.41 39.49 39.20 40.36
26.63 27.55 27.96 29.66 32.69 33.12 31.30 29.40 27.11 25.36 25.15 24.92 23.62 24.18 24.31 25.77 26.51 28.48 26.87 28.48 30.47 32.58 31.68 32.67 33.57 35.31 36.77 38.85 40.43 40.72 40.73 40.67 41.01 41.13 41.02 39.82 38.90 39.41
23.73 25.02 26.14 29.23 30.03 32.06 31.84 31.44 30.83 26.06 23.69 22.64 22.55 21.63 22.17 23.46 25.47 25.26 25.60 24.78 24.25 30.73 28.97 27.49 30.29 29.97 33.66 35.73 38.93 38.55 38.12 38.35 39.04 39.97 40.40 40.48 39.79 39.03
23.16 24.10 25.04 27.61 27.91 28.53 29.55 30.10 29.03 30.01 30.54 26.38 23.85 23.73 23.22 24.63 24.86 23.32 23.22 23.47 23.45 27.47 27.66 25.81 27.58 27.39 29.74 34.76 37.91 37.31 37.13 37.17 37.42 37.44 37.40 38.26 38.30 38.13
25.58 25.51 25.23 25.91 27.41 27.37 26.16 25.52 25.77 26.22 26.69 26.94 26.03 26.36 26.61 27.02 27.03 27.24 27.28 27.53 25.97 27.37 28.23 23.97 25.77 24.23 27.90 29.30 35.47 37.96 37.50 37.06 37.17 37.00 36.99 36.92 36.89 37.70
26.11 25.98 25.68 25.21 27.33 29.12 26.56 25.63 25.65 26.16 29.26 30.29 30.81 30.97 30.90 32.16 31.73 30.08 25.87 24.11 22.11 23.99 26.26 25.29 23.73 21.80 22.23 24.79 27.92 35.63 36.84 37.05 37.17 37.29 37.19 36.93 36.96 36.79
24.15 24.91 26.08 26.20 28.98 28.17 25.29 22.99 21.65 22.44 24.38 24.47 24.57 25.66 27.25 27.72 29.32 29.53 28.33 26.11 24.27 18.94 25.22 25.22 24.77 23.87 21.01 22.96 24.95 27.31 25.80 32.95 35.76 36.74 37.28 37.30 37.11 34.68
22.22 22.76 24.68 26.24 27.30 27.39 27.07 24.81 23.26 24.75 24.96 23.27 22.90 22.91 24.40 25.47 26.48 27.65 27.60 27.39 25.90 25.59 27.56 28.08 24.47 24.26 23.10 23.08 23.66 24.59 23.68 26.80 28.75 32.10 36.29 37.30 37.33 36.52
21.80 23.08 23.88 27.28 26.01 26.04 25.98 27.36 26.08 25.44 21.13 21.64 21.89 22.36 23.58 24.58 26.90 28.58 29.61 29.64 30.40 28.80 30.53 29.81 28.07 26.03 25.37 23.45 22.22 25.15 22.37 24.40 24.08 28.61 27.74 33.38 35.94 36.61
22.85 23.98 25.66 24.72 24.76 24.83 26.04 26.05 24.80 25.22 23.93 22.03 22.26 23.58 25.33 26.52 27.75 27.18 27.98 29.71 30.51 30.92 32.25 31.51 30.74 29.89 28.65 26.24 22.47 23.35 23.82 26.01 23.21 24.07 25.82 27.99 31.54 25.23
22.32 22.60 23.25 23.35 22.72 24.04 23.30 23.95 24.18 23.17 22.87 22.22 22.18 23.96 26.20 26.39 26.68 27.82 26.77 27.28 27.77 26.49 29.05 30.95 31.30 31.16 29.26 28.65 27.47 26.03 26.45 25.50 22.91 24.37 31.05 30.41 29.84 29.65
21.75 19.57 20.11 19.77 19.58 20.95 21.00 21.44 21.92 22.54 21.23 21.69 22.11 22.96 24.34 25.52 25.73 26.81 27.24 26.72 26.11 22.38 24.83 26.85 30.22 30.70 30.48 29.06 26.34 27.26 27.39 24.38 24.17 23.93 28.03 25.14 30.04 29.48
20.04 18.42 17.07 16.84 16.91 18.10 17.77 18.53 19.68 20.80 21.14 21.43 21.74 22.96 22.86 23.46 24.50 25.90 25.56 24.15 23.67 24.86 21.80 24.33 24.80 27.68 28.13 27.75 31.52 28.11 24.98 25.69 22.86 25.58 24.46 28.33 28.67 25.61
16.92 16.44 14.37 13.94 15.24 17.18 16.66 17.31 17.28 20.38 20.41 20.08 20.99 21.08 22.08 22.89 23.43 22.61 21.05 20.92 21.18 25.27 27.97 26.99 28.57 27.64 25.39 21.14 24.67 30.28 28.18 24.99 24.19 22.02 21.10 22.31 27.97 27.30
16.30 15.62 14.13 13.76 15.02 16.48 16.56 16.67 16.97 18.65 17.80 18.58 19.08 19.51 21.23 21.43 19.42 21.80 20.63 19.64 22.39 24.96 23.80 22.96 22.35 21.39 19.12 18.86 20.07 15.96 28.60 21.99 22.87 20.70 20.39 22.15 27.70 29.23
15.02 16.07 15.95 14.33 15.19 15.99 13.87 14.10 13.53 15.41 14.96 15.22 16.32 17.95 18.75 21.47 20.73 17.61 19.35 19.53 17.93 23.02 21.93 21.15 21.63 22.25 22.44 21.87 21.56 17.87 17.74 27.40 22.28 17.83 20.76 20.81 21.66 25.93
6.87 14.17 15.77 15.84 13.27 14.32 11.85 10.94 13.49 13.43 13.08 13.48 13.76 15.19 16.97 20.21 19.77 19.53 18.76 19.52 16.89 15.58 18.16 20.35 24.37 25.39 23.70 21.45 18.67 17.35 15.78 14.91 22.37 26.90 26.88 24.78 20.07 20.27
3.98 7.75 10.99 11.00 11.00 10.96 14.67 12.46 11.37 9.43 10.82 11.27 11.85 13.04 14.15 15.90 18.49 20.69 16.28 16.71 20.56 15.23 15.52 20.70 22.01 22.81 21.73 20.85 18.02 20.12 13.48 12.05 19.60 18.06 17.80 25.67 26.82 26.79

GFSNE_sfc_wetblb_006.txt.gz
Wetbulb
34.32 34.50 34.78 35.73 35.87 36.95 38.60 36.13 32.51 28.77 31.21 31.92 32.50 36.68 37.47 38.29 40.22 41.40 43.45 46.00 45.35 44.35 44.56 45.41 46.30 46.54 44.96 45.30 45.74 46.68 48.26 49.22 50.29 50.81 50.56 50.74 50.89 51.76
34.96 34.00 34.03 35.08 35.69 36.45 36.86 37.06 34.90 32.86 29.48 32.92 33.73 34.90 36.77 38.16 39.38 39.15 42.66 43.99 44.74 43.94 43.52 44.25 43.91 45.60 44.70 44.00 44.70 44.83 45.25 46.29 47.39 47.99 49.05 48.69 47.71 47.96
31.86 30.67 30.36 30.65 30.12 30.55 31.67 33.12 34.25 34.78 31.57 31.63 33.08 32.68 31.73 32.52 34.35 35.82 39.62 40.97 42.60 42.85 42.58 43.10 42.76 42.65 42.90 42.68 42.57 42.77 42.91 43.78 44.25 44.62 45.21 47.07 48.03 47.85
28.59 28.14 28.04 30.01 27.47 27.91 28.24 28.48 29.82 31.10 31.76 29.41 29.12 29.96 30.15 31.84 32.28 33.01 36.10 38.98 41.75 41.61 42.65 42.57 42.45 41.31 41.06 41.08 41.08 41.32 40.90 41.27 41.89 42.43 42.81 43.18 44.09 45.00
27.19 26.85 26.73 26.80 25.53 26.23 26.87 27.78 28.70 30.89 30.15 28.25 27.90 29.00 29.12 30.48 30.92 32.74 32.52 32.81 36.46 41.27 39.24 41.38 41.74 41.75 41.33 40.76 40.83 40.84 40.60 40.53 40.14 40.62 40.98 41.50 42.24 43.03
27.48 26.83 26.00 25.30 24.84 25.48 27.02 27.38 28.37 26.80 26.36 25.75 25.38 25.53 25.74 28.17 29.62 28.72 27.06 28.80 30.13 35.62 36.73 36.32 36.98 39.70 40.91 40.93 40.42 40.67 40.76 40.87 40.86 40.43 39.96 39.10 39.05 40.31
26.24 25.84 25.76 26.99 29.28 29.30 28.67 29.55 27.64 25.53 24.26 23.68 23.00 23.13 23.11 23.06 23.83 26.06 25.42 26.25 27.18 30.52 31.50 31.68 30.97 31.88 34.54 36.70 39.20 40.82 40.52 40.51 40.66 40.88 40.73 39.75 38.58 38.97
23.21 24.19 24.69 26.65 26.90 28.61 29.28 29.93 29.32 26.74 26.23 25.02 22.44 21.38 21.46 22.19 23.60 23.45 22.64 22.58 22.55 27.46 27.52 26.95 29.45 29.24 31.04 33.59 38.26 38.11 38.32 38.46 38.97 39.42 40.02 40.15 39.66 38.67
23.30 23.57 24.47 26.18 26.90 26.84 28.05 28.78 28.09 29.18 29.49 26.97 24.54 23.19 22.48 23.22 23.77 22.53 21.81 21.85 22.14 26.30 26.74 24.66 28.16 26.96 28.97 32.70 36.22 37.23 37.05 37.06 37.17 36.90 36.98 37.66 37.94 37.72
25.09 24.41 23.78 24.14 25.06 25.34 25.34 26.67 26.58 26.53 26.54 26.50 24.60 24.47 25.38 25.86 25.48 25.61 24.54 25.41 26.84 27.16 27.49 21.71 24.98 23.45 26.70 28.41 34.04 37.22 37.36 36.86 36.90 36.88 36.85 36.60 36.22 36.53
24.64 24.88 24.52 24.03 26.35 28.59 26.62 24.06 23.64 24.78 27.34 28.72 29.81 29.70 30.16 30.68 30.17 27.89 26.39 25.48 23.10 23.91 25.33 24.33 22.93 20.13 20.79 21.87 26.00 33.85 35.75 36.56 37.01 36.83 36.88 36.89 36.58 35.96
23.04 23.78 24.92 24.80 26.29 27.64 26.40 24.66 21.79 22.69 23.38 23.25 23.83 24.95 25.89 25.94 27.98 27.25 25.59 24.59 24.33 20.48 24.11 23.44 22.75 21.96 19.08 20.64 22.15 23.19 23.16 31.80 35.28 36.72 37.06 37.20 36.93 33.17
20.82 21.70 22.94 25.75 26.46 26.17 26.47 24.39 24.38 25.75 25.00 24.76 22.96 22.25 22.89 23.83 24.89 25.59 25.22 24.65 22.67 22.80 26.29 26.44 23.93 22.51 21.26 21.36 21.55 22.94 22.45 22.81 23.70 29.82 35.35 36.61 37.14 35.81
20.55 22.23 23.30 25.19 25.48 25.82 25.42 26.03 25.87 24.33 22.99 21.41 21.39 21.31 21.53 22.45 25.26 26.58 27.74 28.18 27.31 26.50 28.84 28.48 25.70 24.56 21.40 18.50 20.97 23.26 21.56 21.95 20.42 25.85 25.16 31.01 33.51 35.45
22.27 23.76 23.74 23.67 24.01 24.31 24.38 24.80 24.26 22.57 21.67 19.18 21.92 23.08 24.62 26.00 27.27 27.01 27.58 28.09 29.26 29.93 30.54 30.30 29.73 27.58 26.02 24.42 20.11 21.90 21.61 22.16 19.16 21.73 20.92 22.57 24.63 23.91
21.96 21.67 21.58 22.63 21.57 22.16 22.36 22.82 22.56 22.40 21.72 20.71 21.39 23.42 25.32 26.24 26.08 27.50 26.47 26.66 26.61 26.63 29.14 29.31 29.93 30.72 28.80 27.86 27.86 25.51 24.41 23.35 21.83 22.48 29.43 29.54 29.51 31.08
16.19 16.66 18.38 17.89 17.55 17.67 17.78 19.41 20.56 21.63 20.67 21.34 21.20 22.07 24.01 25.14 25.74 27.04 26.87 27.51 24.30 22.32 24.18 26.48 27.71 28.66 30.10 29.30 27.17 27.25 25.38 22.98 21.12 23.99 23.92 24.22 23.96 27.35
14.22 12.66 11.20 12.00 15.27 16.09 14.24 15.23 17.42 19.04 19.85 20.24 20.21 21.09 21.78 22.78 23.93 25.01 25.34 22.60 22.79 22.97 22.11 26.77 27.00 28.19 28.64 27.33 30.95 27.28 27.03 27.17 22.72 23.62 25.97 25.05 27.11 23.44
9.85 10.96 9.23 10.98 10.56 16.00 15.09 14.61 14.56 16.57 18.83 18.26 18.39 18.76 19.70 21.63 22.05 22.05 18.86 17.62 19.03 23.21 22.51 21.17 25.46 27.73 25.24 22.42 23.25 29.62 27.41 28.14 25.69 17.90 21.52 27.32 27.93 23.83
10.58 10.11 10.35 12.30 14.04 15.12 14.48 13.57 13.47 12.89 12.82 14.89 15.67 16.27 17.21 19.44 18.20 19.06 18.82 16.22 19.61 22.57 22.45 20.74 19.26 22.00 19.34 16.96 17.51 16.16 26.98 25.55 26.69 24.77 25.21 24.02 26.64 29.29
9.15 10.43 8.52 10.93 12.66 13.58 9.62 9.84 8.12 9.29 9.91 9.97 12.86 14.05 15.03 17.54 18.20 19.63 17.66 15.06 14.35 19.58 18.52 17.92 19.39 21.55 21.74 21.45 16.36 15.14 13.98 26.11 21.90 14.66 15.65 13.91 15.89 20.42
3.83 8.23 8.98 9.43 8.31 10.28 8.01 6.76 8.53 5.27 8.46 9.83 9.98 11.02 12.41 15.29 16.51 17.83 16.22 14.05 14.95 12.13 15.45 17.89 22.15 23.89 20.81 20.13 15.85 11.66 14.95 12.99 20.69 26.14 26.19 23.31 16.54 15.23
1.64 5.20 3.25 1.91 3.67 6.82 10.63 7.46 7.10 5.07 6.81 8.02 8.46 9.79 9.51 11.90 15.57 16.02 14.44 13.95 14.95 13.69 14.65 18.03 19.11 20.59 21.71 20.84 15.95 18.65 12.58 10.09 20.95 16.99 14.15 24.96 26.76 26.90

GFSNE_sfc_wetblb_012.txt.gz
Wetbulb
32.67 32.45 31.69 32.50 31.62 30.60 31.85 30.26 28.08 22.97 23.49 27.73 30.16 34.67 35.73 37.19 37.77 36.97 36.10 40.16 44.19 43.57 42.78 43.15 43.73 44.37 47.04 46.94 46.33 45.61 46.77 49.17 51.81 54.99 55.43 54.39 53.79 53.09
32.75 31.51 29.33 29.65 28.80 29.06 27.96 28.31 28.26 25.41 21.92 27.94 29.39 32.83 35.14 36.72 36.57 37.40 35.96 37.54 41.28 41.52 41.06 41.27 41.43 41.56 43.03 46.26 46.88 45.70 44.56 47.71 50.17 50.84 51.18 51.18 50.84 50.85
29.42 28.45 28.03 27.91 27.16 27.07 27.11 26.40 25.55 25.70 22.53 25.15 28.75 31.44 31.61 33.46 34.22 36.27 36.94 34.99 35.80 40.22 40.56 40.07 40.05 40.04 40.51 42.36 44.78 45.58 44.39 46.78 47.83 49.65 50.30 50.04 49.81 50.18
27.70 27.20 27.03 28.54 25.66 25.31 24.76 24.13 24.38 25.23 24.07 22.90 26.35 28.01 29.87 31.35 31.70 32.59 34.55 35.43 33.24 38.32 38.21 38.70 39.32 39.33 39.43 41.15 42.15 42.76 43.05 42.80 42.70 44.78 46.75 48.78 49.59 49.56
27.03 26.53 26.29 25.90 24.23 23.74 23.62 23.73 24.58 26.32 27.63 27.04 26.22 28.01 28.70 29.93 29.60 31.97 32.23 32.03 32.85 34.51 37.23 36.92 36.98 38.05 38.32 39.28 41.85 41.71 42.07 41.58 40.97 41.15 41.28 42.31 43.85 45.10
27.27 26.67 25.94 25.32 24.37 23.71 24.55 24.12 25.22 24.34 25.29 25.88 26.26 26.33 27.13 29.09 27.67 27.07 27.08 28.91 28.78 31.09 33.44 35.20 35.48 35.67 36.78 37.45 39.54 41.18 41.24 41.30 40.80 40.49 39.78 38.76 39.14 41.27
26.04 26.46 26.44 27.50 29.67 28.08 25.73 24.52 24.19 24.40 24.48 24.76 24.31 25.30 26.10 25.46 23.95 26.22 25.32 25.55 26.93 28.30 29.79 30.49 31.69 33.39 34.13 35.13 37.69 40.12 40.71 40.68 40.69 40.76 40.25 38.98 38.53 39.48
25.74 25.48 25.66 26.38 26.17 27.15 26.96 27.29 26.79 24.40 23.78 24.34 23.54 23.11 24.66 25.87 26.84 25.53 24.41 23.14 22.25 27.74 28.16 27.31 30.19 30.25 31.83 33.28 35.90 38.29 39.67 39.64 39.85 40.26 40.17 39.72 38.87 38.49
23.49 22.78 22.99 24.54 24.81 24.47 25.61 26.69 27.06 28.25 28.44 27.08 24.35 24.24 25.11 26.19 26.05 24.11 23.44 23.17 23.16 26.02 27.10 25.65 27.94 27.62 30.60 31.84 33.69 36.41 37.39 38.24 38.58 38.54 38.64 38.52 38.21 37.53
23.16 22.48 22.16 22.39 24.14 24.66 25.31 26.21 25.41 26.52 26.56 26.24 26.01 26.11 26.92 27.26 26.39 25.90 25.53 25.05 25.01 26.26 28.12 24.13 26.18 26.64 28.54 30.48 32.65 34.97 36.39 36.96 36.94 36.93 36.90 36.54 36.50 36.77
23.01 23.22 22.99 22.84 25.03 27.59 25.19 23.98 23.80 24.66 27.26 27.97 28.20 28.01 27.73 27.97 28.82 27.32 23.90 23.92 22.07 23.76 26.70 25.82 25.19 25.39 25.30 27.64 29.45 33.08 34.94 35.81 36.44 36.64 36.58 36.55 36.25 35.63
22.46 22.91 23.52 23.91 25.90 26.26 25.03 22.83 21.42 23.16 24.22 25.31 25.77 25.81 26.34 26.09 26.99 26.07 25.55 23.76 24.57 22.48 25.63 24.81 24.59 24.46 23.25 25.42 26.36 27.52 28.85 29.81 33.94 35.44 36.33 36.80 36.46 35.73
21.09 21.04 22.50 24.68 25.24 25.27 25.25 23.22 23.75 24.19 23.34 23.39 23.82 24.44 24.89 24.72 24.50 24.95 25.21 24.18 22.48 22.72 26.42 26.57 24.66 24.14 24.20 24.50 26.72 27.59 28.94 29.84 30.98 31.44 32.30 35.35 36.67 35.63
19.48 20.93 21.13 24.19 23.66 23.07 22.60 23.98 23.98 22.51 22.00 21.29 21.17 21.70 22.94 23.65 25.31 26.08 25.77 25.75 25.88 25.17 26.17 27.42 24.82 25.20 24.41 22.50 23.56 26.83 27.82 27.64 28.06 29.81 30.50 30.42 32.43 35.46
18.46 20.50 22.37 21.99 21.47 21.12 21.01 21.62 21.46 20.61 20.28 19.35 19.57 20.91 22.80 25.06 26.80 27.68 27.45 26.87 27.12 26.98 27.37 27.69 26.71 26.50 26.20 24.54 24.59 24.41 26.44 28.27 25.77 28.89 28.10 29.47 30.98 31.34
15.87 14.82 15.64 19.59 16.22 17.73 18.33 17.81 17.73 18.92 18.73 18.56 18.94 20.83 23.32 24.86 25.68 27.36 26.51 26.25 25.55 25.81 28.88 29.95 29.03 28.57 26.63 26.86 26.86 25.78 26.41 26.22 27.03 27.49 27.92 29.73 29.84 30.47
8.52 6.23 9.58 12.31 14.31 15.75 16.01 15.69 15.23 15.06 15.93 16.90 17.61 18.44 20.12 22.24 24.85 26.89 27.39 27.40 25.40 25.31 26.59 27.54 29.66 30.11 29.77 28.75 27.36 28.03 27.61 27.32 28.60 27.30 27.69 27.11 28.67 29.97
10.16 3.91 -1.12 -1.85 6.30 13.37 13.89 13.67 13.05 11.32 12.52 15.29 16.01 16.70 16.90 18.66 21.43 23.84 24.94 24.63 24.81 24.76 25.44 25.96 28.05 27.23 27.67 28.73 31.02 28.14 28.69 27.55 28.49 28.92 27.79 27.23 27.60 29.19
6.91 4.04 -2.39 -3.66 1.60 11.20 13.68 13.01 12.18 11.21 10.34 11.84 13.19 14.28 15.20 17.34 19.19 20.52 21.53 21.81 22.11 23.53 23.70 24.27 25.72 27.43 24.71 23.02 25.74 29.87 27.98 28.88 29.02 28.51 28.86 27.65 26.95 28.38
8.71 5.97 3.38 2.86 6.55 10.18 11.08 11.67 11.30 9.37 8.00 8.02 9.29 11.62 12.72 14.90 16.01 17.58 18.85 18.45 19.05 20.79 21.35 22.90 23.10 23.34 23.84 23.38 23.56 25.73 27.63 26.95 26.77 26.54 26.47 26.27 28.33 28.32
8.47 9.30 5.22 5.64 7.87 8.23 1.73 1.06 2.95 7.60 6.47 4.77 6.64 7.02 8.57 12.36 14.63 15.85 14.79 12.75 14.63 18.03 17.64 18.64 21.09 21.67 23.05 23.28 21.62 21.62 21.41 24.21 24.31 24.94 23.78 23.44 23.04 24.61
6.72 9.06 9.94 7.94 5.96 4.86 -1.30 -4.93 0.32 1.67 7.91 8.08 6.72 6.05 6.61 8.48 11.68 12.54 13.27 12.56 14.03 14.47 15.77 18.70 21.82 23.10 23.12 22.99 20.17 16.27 20.50 22.07 24.20 24.90 25.50 24.66 24.30 21.98
7.65 8.25 7.07 3.20 0.26 -0.22 5.40 1.23 1.49 1.19 2.30 7.17 8.16 8.68 6.10 8.22 10.24 10.63 10.82 13.21 13.90 13.54 14.07 15.79 18.10 20.12 21.02 21.12 19.78 19.22 19.81 19.44 23.24 22.84 23.26 24.09 26.52 26.81

GFSNE_sfc_wetblb_015.txt.gz
Wetbulb
40.02 39.52 38.84 38.76 38.97 37.89 36.14 34.91 31.29 26.90 28.24 32.43 32.43 36.40 36.92 37.60 38.41 40.01 41.26 40.09 38.92 42.88 42.65 43.12 43.56 44.22 45.28 47.18 47.61 47.02 46.79 48.35 51.26 53.49 56.01 56.32 56.84 55.70
38.69 38.59 38.49 37.30 36.28 36.06 35.15 34.21 32.79 29.61 26.38 30.89 31.45 33.27 34.42 34.96 37.25 37.98 39.91 39.39 38.44 39.45 40.74 40.80 41.12 41.82 42.54 44.20 45.98 47.56 46.31 47.13 49.93 51.09 54.98 55.02 54.95 54.48
38.37 36.86 35.63 35.49 34.47 34.36 33.91 32.68 31.11 30.27 26.49 29.32 31.23 32.63 33.47 34.00 34.95 37.08 39.61 40.32 40.17 39.28 39.50 39.53 39.88 39.98 40.12 41.62 43.63 45.32 46.21 46.39 48.90 50.74 50.97 52.20 52.99 52.92
35.81 34.84 33.77 33.78 33.27 33.30 32.39 30.74 30.10 30.33 27.83 25.58 29.25 30.43 31.96 34.17 34.86 35.24 37.72 38.46 39.57 38.61 37.25 37.85 38.22 38.20 38.64 39.72 41.80 43.08 43.63 44.04 46.41 48.01 49.16 49.75 50.63 52.12
33.90 33.16 32.90 32.28 31.51 31.77 30.84 29.71 29.16 28.86 28.57 26.63 26.76 29.42 30.63 32.90 33.60 34.86 35.69 37.49 37.25 36.24 36.43 36.34 36.07 36.91 37.70 38.10 39.98 42.07 41.99 42.72 41.42 42.02 43.49 45.29 47.58 48.73
32.98 32.54 31.99 31.20 30.23 29.83 28.63 28.45 27.69 26.68 26.41 25.57 25.70 26.75 28.82 31.24 31.42 31.32 32.43 35.38 34.50 35.05 35.07 35.13 34.82 35.57 35.37 37.27 38.53 40.50 41.51 41.83 41.51 40.68 39.89 39.60 40.85 43.19
32.15 30.95 30.35 29.53 28.57 28.34 27.60 27.01 26.41 25.24 25.78 25.55 25.01 25.96 27.19 27.30 27.49 29.78 30.22 32.66 33.69 34.72 34.12 35.51 36.37 37.44 39.30 38.17 38.43 38.96 40.53 41.05 41.40 41.15 40.10 39.14 39.17 40.46
28.07 28.48 28.29 27.21 27.35 26.80 26.51 26.86 26.96 25.75 25.60 25.25 26.91 25.39 25.89 27.05 28.41 28.60 28.18 27.67 27.65 35.46 33.08 32.88 35.21 34.25 36.53 38.64 34.72 37.10 39.77 40.14 40.48 40.52 40.21 39.80 39.17 39.01
27.34 26.55 26.30 26.76 26.55 26.89 26.69 27.15 27.99 27.90 27.75 27.37 25.98 25.93 25.97 27.67 27.92 27.40 27.57 27.42 27.36 31.97 31.12 29.36 33.65 32.46 35.03 35.02 33.69 35.61 37.37 39.36 39.36 39.37 39.31 38.75 38.12 37.63
26.65 26.49 26.11 25.97 26.79 25.85 27.33 26.68 26.56 26.83 27.34 27.63 28.19 28.14 28.24 28.97 28.54 28.46 28.14 27.94 29.52 30.95 31.76 26.96 32.07 31.39 34.20 35.28 33.70 33.51 35.73 36.73 38.69 38.72 38.67 38.31 37.84 37.68
26.40 26.75 26.25 25.63 25.64 27.15 26.03 25.22 24.58 25.39 27.82 27.67 28.21 28.69 28.91 28.70 28.48 27.93 26.50 26.07 25.25 27.20 31.05 28.63 29.80 30.52 32.33 33.42 35.47 32.75 33.91 36.44 36.61 36.74 36.94 36.90 36.68 36.56
26.26 25.97 24.79 24.94 25.29 25.75 24.86 24.05 22.06 24.09 24.92 25.71 26.21 27.34 27.99 28.54 27.81 28.30 27.36 25.19 26.23 25.93 29.82 27.36 27.67 29.60 28.60 34.45 35.04 35.35 34.73 31.61 33.83 36.04 36.47 36.83 36.35 38.75
24.21 24.18 25.37 24.30 24.79 24.36 23.70 23.83 23.52 24.56 23.94 24.46 24.91 26.15 26.71 27.08 27.81 28.56 28.87 27.78 25.94 26.09 30.67 29.31 29.26 29.75 30.28 31.16 33.92 35.24 35.38 34.98 36.58 35.81 34.56 35.84 36.60 37.22
23.65 23.99 24.51 23.60 23.02 22.54 22.51 22.40 22.17 23.03 23.80 23.76 23.67 24.24 25.10 25.91 27.20 28.44 28.93 29.04 29.92 28.75 31.26 30.80 28.43 27.74 26.87 27.35 27.95 33.74 35.02 35.56 35.84 35.39 36.53 34.92 33.29 35.83
25.11 23.37 22.23 22.05 21.28 21.47 20.94 20.62 20.38 22.03 21.74 21.52 21.74 23.16 24.73 26.41 27.97 28.80 30.07 29.84 29.53 29.64 29.50 30.12 29.39 29.11 28.33 26.34 26.85 29.72 30.88 33.90 35.32 35.31 35.95 35.79 35.88 37.03
23.33 23.08 20.52 20.40 19.63 19.84 21.00 21.15 20.67 19.83 19.52 20.40 21.10 22.98 25.29 26.79 28.33 30.36 29.18 29.42 28.07 28.17 30.06 30.66 30.32 29.73 28.16 28.28 27.90 27.33 29.12 29.79 33.98 34.44 35.13 35.41 35.31 35.27
21.45 22.44 21.25 20.24 19.93 20.00 20.28 19.71 19.28 18.50 19.07 19.85 20.99 21.92 23.12 24.65 26.25 28.73 28.97 29.90 28.19 28.77 29.47 30.89 31.58 31.93 31.11 30.46 28.33 28.78 28.83 29.74 31.59 31.73 31.25 32.28 34.45 35.80
22.46 20.98 19.70 18.85 18.49 18.49 18.57 18.40 18.75 16.64 17.06 18.91 19.89 20.91 21.53 23.00 24.02 26.24 27.52 28.04 27.70 28.02 28.67 29.53 31.08 30.05 30.12 30.91 31.86 30.71 30.89 29.78 30.52 31.10 31.24 30.02 31.62 34.79
22.41 21.84 20.37 19.62 18.37 18.61 18.45 18.17 17.32 16.95 16.06 17.41 18.51 19.42 20.02 21.97 23.60 23.88 24.91 25.14 25.34 26.30 27.50 28.94 29.31 29.68 27.55 26.99 29.15 30.25 30.26 30.89 30.73 30.39 31.01 30.18 29.23 31.62
22.67 21.90 21.39 20.91 19.97 18.89 18.41 17.72 17.51 17.21 15.77 16.01 17.69 18.11 18.45 20.18 21.68 22.00 22.88 22.63 23.86 24.58 25.73 27.56 27.35 26.76 26.75 27.31 28.77 29.76 27.98 31.26 30.82 30.15 28.85 30.87 31.56 28.60
24.27 22.86 22.95 21.84 21.07 20.27 19.50 17.85 16.78 16.70 15.37 14.93 16.61 16.71 17.52 18.67 19.74 20.45 21.48 19.62 20.36 22.31 22.09 23.72 26.16 25.14 27.97 29.22 27.82 28.24 29.76 25.36 28.01 29.42 29.91 28.61 27.75 28.30
25.58 24.08 23.66 22.93 22.06 20.86 20.22 18.58 17.87 17.98 16.67 16.56 15.68 16.76 16.83 17.61 17.89 18.61 19.52 20.09 20.58 20.74 21.47 23.97 26.02 27.44 27.56 27.00 26.43 25.92 28.06 28.65 26.81 25.70 26.17 26.50 29.35 26.98
26.22 25.51 25.02 23.68 22.79 21.35 20.14 19.95 17.60 17.72 16.46 15.60 15.97 16.65 16.13 16.01 17.16 18.64 18.97 19.35 19.44 19.25 20.00 21.37 23.52 25.64 25.98 25.45 24.82 26.48 24.51 26.23 28.28 28.27 28.71 24.92 26.73 26.78

GFSNE_sfc_wetblb_018.txt.gz
Wetbulb
41.83 41.42 40.55 40.46 40.59 39.94 38.98 37.72 34.16 29.92 30.99 34.78 35.06 38.61 38.64 38.77 38.34 38.72 38.76 39.33 40.32 38.53 40.86 41.73 42.11 42.73 43.72 44.64 46.51 48.50 48.56 47.97 50.05 52.75 54.82 56.51 57.72 58.53
41.25 40.47 40.22 40.15 39.55 39.45 38.34 37.63 35.76 33.07 30.81 34.43 35.03 36.70 37.49 37.10 38.02 38.75 38.91 38.50 38.27 38.04 40.39 40.32 40.67 41.09 41.25 41.99 43.03 45.31 47.84 48.09 47.90 49.46 52.31 54.80 56.15 56.80
40.30 38.74 39.43 39.51 38.24 38.16 37.95 36.85 35.25 34.39 30.55 33.47 34.65 35.97 35.45 35.10 36.64 37.35 38.33 39.31 39.53 39.61 38.41 38.39 39.34 39.40 39.29 39.88 40.67 42.58 44.90 47.32 47.41 47.37 51.06 53.58 55.41 55.46
38.98 38.91 38.16 37.57 37.46 37.40 36.46 35.12 34.47 33.66 30.94 28.79 31.68 32.04 32.92 34.16 35.26 35.45 35.79 38.23 38.66 39.97 38.29 37.44 37.94 38.26 38.44 38.48 39.37 40.61 42.73 44.73 44.61 45.84 48.14 50.27 52.64 53.51
38.60 37.60 37.10 36.76 35.65 35.58 34.96 33.81 32.59 31.49 30.62 28.88 28.85 30.67 32.19 32.89 32.58 34.19 35.17 36.36 38.05 39.05 37.64 38.02 37.72 37.17 37.24 37.69 39.03 39.79 41.68 42.50 42.64 42.24 45.03 46.24 47.80 49.78
37.66 37.17 36.34 34.74 33.59 32.81 31.84 31.58 30.69 29.63 30.04 29.18 28.09 28.93 30.75 32.80 32.43 30.55 32.42 35.12 36.06 37.73 37.48 35.27 35.59 36.55 37.31 37.08 38.71 39.34 40.11 41.67 42.05 41.13 41.42 42.91 43.78 45.26
36.62 35.49 34.19 31.97 29.08 28.87 29.25 28.98 28.24 27.59 26.74 27.14 26.37 27.04 28.09 28.46 28.73 30.62 30.30 31.92 33.64 35.95 36.26 36.46 36.70 37.58 38.23 38.02 39.20 38.65 38.73 40.26 41.61 41.31 40.07 41.03 41.60 42.56
33.36 33.15 33.03 31.02 30.52 27.91 28.04 27.63 28.01 27.11 26.08 26.34 27.46 26.68 26.73 28.56 30.01 29.55 29.41 29.50 27.64 35.26 34.42 33.21 36.75 35.75 37.76 39.16 34.34 36.25 37.64 39.50 40.62 40.90 40.56 41.03 40.27 40.21
32.30 31.59 30.94 30.93 30.09 29.64 28.38 28.03 28.89 28.98 28.53 28.53 26.07 26.33 27.17 29.47 29.50 28.59 28.65 28.87 28.57 31.96 32.29 29.96 34.34 33.44 37.07 37.33 34.01 35.10 36.58 37.72 39.82 40.39 40.31 39.90 39.45 38.05
31.61 31.14 30.73 30.44 29.85 27.73 27.20 27.50 28.99 30.02 29.90 29.30 28.49 28.66 29.19 29.79 30.11 29.68 29.39 29.23 30.72 31.35 32.79 28.07 32.92 32.60 34.84 37.38 34.30 33.04 35.61 34.97 38.70 39.10 39.16 38.59 37.92 37.76
30.87 30.88 29.45 28.79 27.06 26.42 26.34 25.98 27.21 28.27 29.43 28.35 28.12 28.02 28.19 28.40 29.22 29.40 27.19 26.08 26.34 28.64 32.38 30.79 31.20 31.69 33.78 35.20 37.15 33.33 33.84 35.11 35.34 38.00 38.34 38.59 38.17 37.40
30.62 29.86 27.17 26.53 24.98 25.45 25.34 25.03 23.80 25.58 25.82 26.63 27.68 28.62 29.03 29.31 28.78 29.75 28.19 25.44 25.98 26.94 31.65 29.18 29.35 31.09 28.93 35.32 36.21 37.39 36.16 34.23 34.93 35.65 36.50 36.52 36.78 41.15
28.69 28.75 28.64 25.20 24.63 24.39 23.76 25.08 23.87 24.61 24.52 25.60 26.18 27.65 29.23 29.29 29.71 30.67 30.76 28.11 26.68 27.07 31.41 31.36 30.18 29.96 30.54 31.80 34.66 36.45 36.79 36.57 36.65 36.29 35.19 35.90 36.90 36.78
27.57 28.91 27.62 24.18 23.85 23.07 23.54 22.01 22.11 23.21 25.44 24.95 25.40 26.01 27.06 28.03 29.40 30.93 31.81 31.90 31.04 29.94 31.95 32.31 30.39 30.56 29.67 29.93 31.03 34.86 35.53 37.40 37.08 36.41 38.26 36.74 35.33 35.80
28.58 26.63 23.80 23.17 23.48 24.21 22.58 21.96 22.35 24.87 23.68 23.49 23.40 24.44 26.27 28.46 30.27 31.05 31.57 31.80 32.24 31.59 31.50 32.26 31.79 30.69 30.50 29.13 29.32 31.72 33.03 34.97 36.59 36.96 37.90 38.14 37.53 37.84
28.35 28.33 25.50 22.69 23.57 23.95 25.27 25.31 25.04 23.73 22.58 22.99 23.47 25.17 27.28 28.63 29.43 31.00 31.13 31.51 29.92 29.68 30.64 31.05 31.14 30.66 28.70 29.12 29.48 29.24 32.23 31.90 35.20 35.05 36.42 36.48 37.75 38.50
25.60 27.66 27.43 26.22 25.04 25.45 25.50 24.75 24.87 23.57 22.52 22.88 24.13 24.11 25.07 26.16 27.34 30.02 30.11 31.90 29.74 30.42 30.82 31.18 31.23 31.70 31.96 31.20 29.79 30.63 31.02 30.02 33.06 34.29 34.28 33.17 35.22 36.64
26.11 26.34 26.38 26.04 24.78 24.24 23.93 24.07 24.39 22.47 21.90 22.24 22.82 23.76 23.51 24.21 25.38 27.64 29.03 29.24 28.88 29.92 30.47 31.81 32.35 30.73 30.66 31.66 32.22 32.03 31.81 31.95 32.26 32.41 32.10 31.24 32.18 36.30
25.90 26.71 26.12 26.00 25.40 24.66 24.32 23.62 22.98 23.12 21.22 21.62 22.01 22.34 22.96 23.56 25.12 25.58 26.46 26.67 26.94 27.93 29.16 30.79 30.80 30.96 28.33 26.63 30.85 30.46 31.52 33.02 32.05 31.30 32.38 31.82 30.95 33.38
26.58 26.52 26.39 26.39 26.04 25.19 24.54 23.52 22.94 23.06 22.66 21.47 21.22 21.90 22.49 22.47 23.51 23.56 24.29 24.15 24.20 25.90 27.14 29.27 29.76 27.79 26.78 26.86 29.61 30.46 28.43 32.78 32.94 32.33 32.44 33.69 33.88 29.46
28.34 27.75 27.97 26.92 26.73 26.21 25.60 24.25 22.73 22.46 21.05 21.26 21.75 21.15 21.42 21.95 22.41 22.81 23.30 23.11 23.26 24.01 23.69 25.10 27.52 27.11 29.59 31.18 29.59 29.54 30.54 27.31 29.50 32.06 32.29 30.97 29.27 30.06
29.25 28.53 28.41 28.32 27.50 26.70 26.02 25.09 24.02 23.21 22.59 21.83 21.53 21.88 22.23 21.21 20.89 21.81 22.62 22.47 23.13 23.53 23.97 25.80 27.63 28.38 28.56 28.22 28.77 27.87 28.31 29.49 27.63 27.20 27.30 27.10 29.42 29.38
31.17 29.43 29.31 28.61 27.62 26.59 25.72 25.24 24.00 23.35 22.63 21.32 21.30 21.24 21.12 21.08 20.83 21.25 22.03 22.37 22.51 21.93 23.06 23.82 26.63 28.64 28.13 27.64 26.71 28.75 27.31 27.49 29.18 28.59 29.19 26.09 27.49 27.43

GFSNE_sfc_wetblb_021.txt.gz
Wetbulb
43.36 42.63 41.45 41.23 41.14 40.48 39.48 38.29 35.42 31.06 31.45 35.99 36.47 39.68 40.18 40.39 40.40 40.04 39.60 39.82 39.72 39.57 39.23 40.01 41.58 42.40 42.55 42.77 43.19 43.87 45.79 47.74 48.83 49.13 49.79 52.47 55.52 57.38
42.76 41.42 40.90 40.64 40.24 40.03 38.97 38.89 37.70 34.97 31.09 35.78 36.52 37.97 38.53 37.60 38.71 38.83 38.52 39.12 38.90 39.16 38.87 39.55 40.21 40.04 40.68 41.23 41.65 42.27 43.21 45.55 47.35 48.40 48.41 49.02 51.67 54.94
42.22 40.72 40.15 40.23 38.99 38.64 39.37 38.44 37.19 36.38 32.27 35.60 36.40 36.85 35.88 35.54 35.84 37.38 37.74 38.29 38.84 38.95 39.48 39.91 38.86 38.97 39.15 39.48 39.94 40.77 41.62 43.06 44.92 46.91 47.57 48.07 49.04 52.38
40.13 39.79 38.86 38.72 37.83 38.11 37.42 36.32 36.01 36.02 34.09 30.87 32.68 33.31 33.18 34.06 34.94 34.78 35.75 36.46 37.43 37.87 39.66 39.04 38.22 38.68 38.64 38.77 38.52 39.77 40.31 41.62 43.32 44.60 45.04 46.15 47.43 49.31
39.35 38.68 37.71 37.13 36.06 35.64 34.94 33.87 33.95 33.42 33.22 30.45 29.49 32.04 32.59 33.67 33.55 34.42 34.25 35.28 36.21 38.12 37.83 37.71 38.30 38.91 38.06 38.45 38.41 39.04 39.93 39.89 41.81 42.07 42.43 42.12 44.67 47.12
38.82 38.27 37.30 35.89 34.45 33.08 31.39 31.31 31.42 30.24 29.83 28.72 28.64 28.91 30.54 32.26 32.66 31.34 31.40 33.43 33.88 36.01 36.75 37.82 37.57 38.30 38.45 38.69 38.64 38.95 39.00 38.98 39.99 41.52 41.35 40.64 41.50 44.51
37.86 36.92 36.42 33.09 30.26 29.90 29.66 29.28 28.79 27.60 27.06 26.76 26.31 27.40 28.19 29.18 29.06 30.95 30.37 31.15 32.67 34.70 34.48 36.06 36.64 37.34 37.86 37.63 37.85 38.34 37.66 38.27 39.00 40.84 40.63 40.73 41.38 43.43
34.96 35.11 34.91 34.24 33.09 30.79 30.17 29.01 28.76 26.71 26.27 26.88 26.81 25.77 26.16 28.03 30.01 29.47 29.49 28.08 26.01 34.17 32.69 31.94 35.86 35.83 36.89 38.10 34.96 35.92 36.97 37.26 38.52 40.11 39.78 39.72 39.91 40.06
34.42 33.41 32.90 33.13 31.69 32.00 30.58 29.71 29.39 30.15 30.05 29.06 26.59 26.73 26.73 28.40 28.32 27.72 27.90 28.05 27.83 31.22 31.49 29.58 34.26 33.11 35.85 37.18 35.46 34.88 36.08 36.34 37.36 38.61 39.14 38.97 39.36 38.51
33.79 33.12 32.37 31.87 30.65 28.10 27.65 27.41 28.52 29.35 30.06 29.76 28.95 28.12 28.39 28.58 27.96 27.85 27.81 28.53 29.99 31.36 32.60 27.14 32.35 31.98 35.14 36.48 35.82 34.52 34.69 35.86 36.37 39.12 39.98 39.41 38.90 38.40
33.02 32.96 31.45 30.04 27.62 26.55 25.81 25.46 26.21 27.51 30.30 30.20 28.88 28.87 29.07 29.40 29.21 28.89 26.83 26.33 25.89 27.27 31.63 29.49 30.75 31.68 33.98 34.67 37.12 35.32 34.21 35.85 34.87 38.42 39.21 39.20 38.25 37.78
32.25 32.09 28.85 27.17 25.50 25.33 24.99 24.24 23.21 25.48 25.30 25.70 26.61 28.26 29.65 30.24 30.74 29.82 28.49 25.66 25.69 25.43 30.30 29.22 29.76 30.52 28.49 34.54 35.94 37.66 36.25 35.64 34.75 34.78 37.14 38.23 38.26 39.60
29.86 30.07 31.07 27.11 25.60 25.03 24.64 24.41 24.05 23.92 24.10 25.63 26.36 27.46 28.65 29.78 30.71 31.10 31.06 29.30 27.59 26.19 30.75 30.02 29.61 30.06 30.38 29.95 33.89 36.48 37.66 35.55 36.06 34.90 35.27 35.65 36.33 36.45
28.72 30.00 30.18 26.45 25.08 24.45 24.75 24.23 23.62 23.83 26.83 25.72 25.61 26.00 26.44 27.25 29.11 30.88 31.58 31.80 32.19 30.46 31.57 31.03 29.73 29.51 29.62 29.40 29.49 34.14 36.04 37.85 37.47 36.03 35.71 36.20 35.37 35.33
30.21 29.19 26.74 26.35 25.72 26.20 25.87 24.66 23.71 26.26 24.60 23.74 23.50 24.55 26.26 28.25 29.97 31.47 32.59 33.75 32.35 32.52 32.01 31.86 31.63 30.82 30.07 28.60 28.76 30.92 31.95 34.51 38.29 36.87 37.66 36.33 35.48 35.75
29.56 30.33 28.48 27.05 26.66 25.55 26.54 27.99 27.53 26.66 23.99 23.49 23.62 25.41 27.81 28.30 28.53 30.46 30.41 30.83 31.56 30.28 31.93 31.81 31.79 31.54 29.14 29.74 29.77 29.38 32.09 30.93 35.17 36.18 37.81 37.74 38.40 39.11
27.69 28.92 28.57 28.64 27.13 27.20 27.54 27.29 27.08 26.62 24.62 23.88 23.82 24.07 24.86 25.84 26.75 29.14 29.48 29.92 30.09 30.48 30.81 30.48 31.26 31.92 31.49 30.18 29.29 30.18 31.03 31.82 33.64 34.94 34.66 34.20 36.12 37.41
27.40 27.17 27.65 28.30 26.91 26.17 26.17 25.86 26.28 25.39 24.91 23.29 23.68 23.55 23.13 23.64 24.66 27.21 28.24 27.99 27.76 28.78 29.55 31.71 30.46 28.78 29.28 31.07 32.46 30.44 31.65 31.38 32.50 33.42 33.59 32.11 32.62 36.62
26.00 27.29 28.29 27.94 27.28 26.75 26.86 26.01 25.06 25.53 24.48 24.71 23.33 23.32 23.07 23.31 24.26 25.00 25.42 25.76 25.18 26.61 27.93 30.60 30.39 30.08 27.73 25.61 31.53 31.36 30.30 33.28 32.77 31.91 31.97 31.26 31.06 33.06
27.72 27.48 27.90 28.49 27.79 27.15 27.03 26.26 25.70 25.25 24.67 23.62 23.36 23.59 23.00 22.29 23.09 23.30 23.98 23.62 23.96 25.15 25.68 28.14 28.72 26.65 25.30 25.80 29.12 29.16 29.24 31.57 32.88 32.23 31.99 33.82 32.94 29.54
29.19 29.34 30.96 29.64 28.41 28.17 28.25 27.13 25.77 24.29 23.94 23.20 23.31 23.05 23.00 22.52 21.72 22.34 23.36 23.38 23.93 24.19 23.07 24.42 26.83 27.85 29.45 31.11 28.98 28.76 29.66 28.84 29.77 30.89 32.96 31.38 30.14 30.37
30.47 29.72 30.57 30.60 30.18 28.95 28.70 27.59 26.35 25.78 24.58 24.15 23.81 23.52 23.23 22.82 22.42 21.05 22.35 22.21 22.69 22.96 23.10 25.75 28.10 28.81 28.59 27.87 28.46 27.85 28.87 29.68 28.42 28.23 27.98 27.92 28.61 27.86
32.23 31.51 31.66 31.75 31.65 29.75 27.78 27.00 26.13 25.82 24.78 23.68 23.34 23.27 22.38 21.57 22.92 23.23 21.71 21.85 22.20 21.89 22.15 23.28 25.85 28.67 28.36 27.47 26.46 28.99 27.26 27.80 28.53 27.70 28.22 27.44 27.89 28.08

GFSNE_sfc_wetblb_024.txt.gz
Wetbulb
39.68 40.63 38.59 39.71 39.00 36.40 36.62 34.39 30.69 26.58 27.94 31.77 31.84 34.62 34.96 34.47 35.88 35.21 34.77 38.18 39.22 39.19 39.22 40.03 40.39 40.32 40.05 40.96 42.42 43.18 43.43 44.14 45.19 47.36 47.97 48.75 50.15 51.61
41.31 40.04 39.08 39.13 37.29 36.31 35.04 34.08 33.88 30.66 27.48 31.46 32.22 32.85 33.40 35.21 35.88 34.31 34.21 37.35 37.51 37.84 38.42 38.79 39.85 40.69 40.15 40.56 40.94 41.19 41.64 42.76 43.76 45.15 47.04 47.16 48.13 49.92
39.22 38.82 38.97 38.14 34.81 34.26 33.96 34.00 31.83 31.22 27.90 29.96 32.01 31.55 30.76 30.80 32.30 33.10 34.08 33.22 33.96 37.62 38.15 38.55 38.91 39.79 40.09 39.67 39.35 39.45 39.84 41.28 42.29 43.62 45.34 46.89 47.27 48.66
37.04 36.78 36.51 37.51 34.62 33.83 32.37 30.46 29.71 29.68 27.88 25.87 28.40 28.82 28.88 30.37 30.93 30.82 32.96 34.89 33.63 36.58 37.82 38.01 38.74 38.79 38.77 39.33 39.38 39.21 39.40 40.27 39.76 41.46 43.17 44.18 44.89 45.43
36.33 35.42 35.40 34.72 31.55 30.27 28.93 27.41 27.70 29.77 27.98 25.77 25.24 27.77 28.23 29.11 29.11 30.20 30.90 31.57 34.14 36.53 36.61 37.16 37.12 37.39 38.59 38.65 39.15 39.11 39.02 39.31 39.01 39.46 41.20 41.77 41.70 43.20
36.71 35.36 34.64 32.72 28.75 27.07 27.22 25.37 26.27 24.86 25.21 24.54 24.59 25.09 25.87 27.56 28.25 26.79 27.20 29.10 29.43 33.44 34.95 35.68 36.86 37.71 37.66 38.32 38.74 39.16 39.17 38.29 38.55 38.85 39.74 40.15 39.76 41.76
34.51 34.74 33.19 31.97 31.29 28.72 27.19 24.72 24.64 23.53 23.48 23.01 23.00 23.98 24.38 24.11 23.37 26.41 26.20 27.18 28.50 29.89 29.84 32.65 33.61 35.32 35.02 36.65 38.01 38.47 37.16 37.60 37.77 38.63 39.86 40.26 39.58 40.95
31.05 31.02 30.97 33.21 31.76 31.06 31.38 30.56 27.85 23.32 22.59 22.82 23.50 22.95 23.33 24.40 26.11 25.36 24.12 23.48 23.14 29.17 28.04 27.04 32.39 32.33 34.00 36.27 36.90 36.38 36.46 36.30 36.57 37.89 38.61 39.78 39.13 39.34
29.92 29.14 29.90 32.12 29.35 27.41 28.62 28.42 27.81 29.49 29.62 26.36 24.54 24.89 25.62 25.29 24.49 23.15 22.35 21.99 22.31 26.09 26.70 24.21 27.43 29.10 32.69 34.82 35.87 35.62 35.60 35.70 35.86 36.98 38.37 39.19 38.49 38.18
29.58 29.28 27.94 27.37 25.14 25.52 24.38 23.38 24.40 25.11 26.08 27.36 23.60 23.35 24.24 24.96 25.01 25.15 24.14 24.07 25.16 26.05 26.71 22.37 26.59 27.60 29.14 30.37 36.20 36.46 35.04 34.98 35.59 37.09 38.80 39.11 37.93 38.34
30.35 29.87 29.42 26.59 26.66 27.23 23.70 22.67 22.42 23.28 28.31 27.89 27.05 28.05 29.36 30.16 29.98 26.61 23.43 22.40 21.12 23.43 25.63 25.71 26.22 27.35 26.78 27.33 29.10 35.59 35.07 34.90 34.91 36.00 39.17 39.21 37.42 37.43
28.20 28.17 28.05 26.06 26.23 25.97 22.04 21.41 19.68 21.68 22.01 21.79 23.46 26.14 27.46 27.99 30.81 30.24 27.20 23.35 23.07 22.45 25.89 25.51 27.20 27.95 22.20 25.13 26.94 27.97 26.76 34.82 34.20 34.93 36.69 38.86 35.99 35.82
26.43 25.84 26.67 27.03 26.83 26.51 25.30 22.25 21.63 23.05 22.77 22.40 24.18 24.53 26.39 26.76 27.01 27.78 28.79 28.64 26.41 25.00 28.81 27.03 25.85 25.52 25.90 26.99 31.24 31.60 30.66 31.11 33.71 34.27 33.90 35.92 36.93 36.96
25.98 26.18 26.56 28.15 27.70 26.53 25.21 25.65 25.73 23.92 20.33 19.14 21.93 23.04 23.57 24.40 26.28 27.26 28.92 30.96 31.82 28.68 29.70 29.19 25.56 25.73 25.05 26.94 28.40 31.50 30.62 29.42 30.96 33.47 32.46 35.15 35.56 33.88
25.83 28.13 28.53 28.28 28.26 26.79 28.20 26.75 22.90 20.92 19.03 14.84 18.75 22.52 23.56 25.77 27.28 27.03 28.00 29.43 30.83 30.69 31.20 29.60 26.65 27.16 25.34 24.27 24.69 26.70 29.51 29.75 31.08 34.00 33.70 31.74 32.98 33.11
26.33 26.96 25.42 24.96 22.59 23.40 22.35 25.41 23.82 22.29 20.41 17.09 16.69 20.58 23.81 24.25 24.34 25.69 25.61 26.86 27.68 29.09 30.09 29.42 28.18 27.50 24.45 24.55 24.21 22.98 23.24 26.31 31.74 30.10 33.37 34.35 33.76 34.50
23.15 21.87 21.48 23.39 23.13 22.55 22.59 22.95 23.27 23.69 20.28 17.34 16.03 18.88 21.13 22.88 22.87 24.03 26.11 25.72 25.02 25.76 28.62 29.40 28.46 27.93 26.84 27.21 21.42 23.12 23.04 23.80 29.84 32.19 28.92 29.59 30.06 31.55
22.06 19.51 18.09 19.79 21.83 21.45 19.25 19.76 20.00 19.72 20.44 18.81 17.40 17.33 18.03 20.40 21.44 23.28 25.35 24.52 23.07 23.61 24.95 27.91 29.78 26.29 25.74 25.86 29.35 24.22 28.11 24.36 24.40 28.34 28.28 25.20 25.85 29.15
20.10 19.57 20.21 20.78 24.46 23.06 20.61 20.32 18.00 18.33 18.57 20.03 16.69 16.88 16.66 18.28 19.93 21.73 22.56 23.18 22.40 22.92 24.51 26.30 27.89 25.74 24.07 23.84 29.42 30.60 25.17 29.63 26.53 22.25 23.82 24.18 22.32 29.84
24.77 23.55 23.09 22.69 22.68 22.43 21.38 20.70 19.03 17.49 16.99 17.38 14.30 19.73 16.02 16.42 15.95 19.46 20.01 20.02 20.65 22.13 23.18 24.54 25.10 23.25 21.44 23.09 25.70 26.43 29.82 27.57 29.14 21.90 21.68 23.18 25.47 29.81
26.56 25.75 25.37 24.81 25.81 23.07 20.41 19.15 19.02 16.21 15.06 11.90 15.67 19.45 18.66 18.64 17.92 15.79 18.64 18.45 18.94 21.49 20.04 21.05 23.91 26.15 26.56 26.42 24.68 25.84 25.48 29.47 27.60 25.70 30.56 27.99 23.98 22.85
26.54 26.33 26.10 24.83 25.43 24.68 22.21 20.22 18.48 16.49 21.35 18.77 17.18 13.95 17.62 13.03 15.09 18.38 13.62 16.57 18.79 18.87 19.34 21.64 25.06 27.05 27.72 26.98 25.77 25.15 25.68 22.65 27.15 28.57 28.36 26.90 22.42 21.36
28.56 28.00 27.94 27.53 27.58 26.61 23.62 23.02 20.08 17.89 17.37 16.07 16.68 15.40 12.41 11.04 18.70 17.82 18.53 15.58 19.07 17.39 17.02 18.03 22.89 25.27 26.38 25.46 25.24 26.22 21.56 21.69 23.45 23.22 21.62 28.07 28.54 28.68

GFSNE_sfc_wetblb_027.txt.gz
Wetbulb
39.75 40.45 38.48 38.75 39.42 38.90 37.17 33.97 30.86 23.17 26.27 28.15 28.12 32.29 32.07 31.93 33.63 32.76 32.00 36.12 38.23 38.21 37.74 37.90 38.28 38.96 39.47 39.86 40.56 41.05 41.77 42.73 43.60 44.19 45.01 46.17 47.65 49.12
38.83 37.89 38.43 38.39 39.14 38.18 35.74 32.47 30.88 28.69 23.33 27.96 27.89 29.07 30.08 32.69 33.85 32.39 31.97 36.17 36.02 37.00 37.26 38.05 38.66 38.37 38.65 38.82 39.86 40.54 40.94 41.11 41.35 42.60 43.50 44.84 46.20 47.93
37.69 37.08 36.59 37.31 36.52 35.35 33.14 30.38 28.60 27.58 22.91 25.24 27.25 28.06 27.37 27.78 29.87 30.50 32.18 31.60 32.08 36.02 36.98 37.40 37.72 38.20 38.07 38.51 39.48 39.85 39.87 40.02 40.18 41.27 42.06 43.46 44.90 46.27
35.65 34.61 34.66 36.06 31.78 31.17 28.26 26.58 26.02 25.19 23.74 22.17 24.16 25.17 25.18 26.88 27.43 27.57 30.67 32.93 31.76 34.69 36.55 36.74 37.09 37.12 37.80 37.51 38.30 38.99 39.23 39.33 39.25 40.21 40.59 41.38 42.94 44.53
34.59 33.39 32.69 32.07 28.67 26.46 25.84 24.40 24.15 26.73 23.58 22.01 22.72 24.45 24.43 25.60 26.30 27.59 28.47 28.62 31.80 33.98 34.09 35.18 36.26 36.32 37.03 37.00 37.42 38.60 38.47 39.03 39.53 39.24 39.32 39.64 40.95 42.35
35.29 33.54 32.52 29.41 26.92 25.52 25.57 23.65 24.54 22.80 22.68 21.93 22.26 22.69 23.75 25.55 25.61 23.65 24.54 27.08 27.00 30.56 31.99 33.19 34.90 35.13 35.71 36.18 36.43 37.28 38.71 38.75 39.01 38.41 38.92 38.80 39.18 39.96
31.96 32.07 30.25 30.42 32.38 28.23 25.91 23.09 23.21 22.29 21.84 21.78 21.27 22.02 22.69 23.12 23.07 25.66 23.78 24.01 24.61 26.06 26.83 28.14 29.08 30.82 32.09 34.61 35.36 37.03 37.68 37.98 37.35 37.43 38.36 39.24 39.23 38.86
28.92 27.75 28.27 30.19 30.91 31.37 30.43 29.64 27.85 22.89 21.49 20.47 21.89 21.43 22.52 23.44 26.18 22.53 21.96 20.52 18.53 24.45 24.08 24.00 27.12 26.95 29.44 33.83 34.44 35.37 37.20 36.66 36.68 36.68 37.59 38.62 39.49 38.05
27.11 26.82 28.02 29.68 27.61 25.67 26.24 26.60 25.99 27.23 27.21 23.24 21.36 20.40 19.90 21.61 22.31 21.52 21.50 21.14 20.76 23.71 23.81 22.11 24.82 24.08 29.08 32.57 34.22 35.69 36.51 36.27 35.79 36.01 37.12 38.38 38.57 37.32
27.60 27.26 26.09 24.56 25.35 25.17 23.50 22.45 22.68 23.10 23.98 24.51 21.22 20.69 21.58 23.58 23.70 24.53 23.69 23.66 23.99 24.96 24.53 20.50 23.91 24.21 26.72 29.98 32.92 34.27 36.46 35.53 34.95 34.46 37.12 38.25 37.86 37.30
28.58 28.03 27.91 24.83 27.10 27.26 23.56 22.32 21.43 22.36 26.01 27.34 26.69 27.37 28.06 28.92 28.83 27.17 25.56 24.94 20.82 22.55 23.96 22.95 23.02 22.87 24.64 26.95 28.22 33.36 35.18 35.38 33.42 33.82 36.02 38.82 37.86 37.17
26.52 26.32 28.45 25.08 26.48 26.51 22.64 20.63 18.88 20.66 22.06 21.71 22.40 23.90 25.82 26.27 29.40 26.34 25.19 23.55 23.56 22.71 24.80 23.40 23.73 23.79 21.68 23.91 26.36 26.26 26.94 34.35 33.79 33.60 35.49 37.07 37.59 37.41
25.68 24.82 24.47 27.46 27.17 28.01 27.08 21.63 20.39 22.99 23.34 21.94 21.73 22.44 23.78 24.82 25.45 26.14 26.32 25.71 25.02 25.12 29.03 27.64 23.84 23.01 23.22 24.02 27.47 31.40 27.80 31.03 31.75 33.86 34.03 35.61 36.18 35.49
25.16 25.05 24.65 29.29 28.96 28.65 27.11 26.66 26.92 25.23 15.56 17.28 17.75 19.18 20.76 21.79 24.24 25.53 26.31 26.63 27.70 28.15 30.85 30.15 24.85 23.66 20.89 23.80 25.36 29.66 30.46 28.82 31.49 32.51 32.18 33.23 34.77 36.57
24.35 25.77 28.88 28.96 29.13 27.88 28.77 28.84 24.71 19.74 15.22 10.85 14.59 16.44 19.29 22.41 24.74 24.55 25.76 26.11 27.89 29.11 30.22 29.91 26.49 26.29 25.42 23.10 24.01 26.00 27.38 28.06 31.98 31.92 31.82 31.82 31.82 32.00
25.03 25.21 23.43 24.46 21.57 22.48 22.27 24.58 23.15 20.82 19.19 14.05 13.87 15.92 18.78 19.35 19.99 22.53 21.97 24.05 24.27 25.09 29.05 30.38 28.96 27.21 23.36 23.19 24.77 24.81 25.68 23.23 30.78 32.12 31.82 31.82 31.80 32.00
18.77 18.38 20.84 18.77 21.18 22.72 20.96 20.94 20.41 19.66 17.41 13.13 12.41 13.82 17.03 18.76 19.63 21.79 22.59 22.92 21.33 21.85 23.88 26.31 30.61 28.59 25.85 26.03 20.11 21.84 22.43 22.10 27.12 30.99 31.00 31.59 31.60 31.82
25.89 16.48 14.33 12.47 16.00 20.50 19.04 18.72 16.18 16.69 17.39 16.22 11.68 14.09 14.28 14.50 18.03 20.44 22.48 21.69 20.85 21.80 22.28 25.36 26.35 26.58 26.01 26.74 28.30 23.08 21.36 26.26 23.03 28.25 29.85 28.04 29.62 31.53
16.16 16.45 12.57 14.18 16.54 21.38 20.61 19.37 16.22 15.14 15.46 15.26 12.32 10.73 12.00 15.14 15.14 17.65 19.40 19.88 19.78 21.08 22.77 24.83 23.54 18.08 16.10 18.08 27.23 29.55 21.60 25.63 27.01 22.94 25.37 24.95 26.83 29.86
20.63 19.73 18.91 19.16 20.75 22.05 21.08 18.79 16.52 12.68 13.12 13.21 9.14 6.20 6.85 10.41 11.01 14.26 16.03 14.68 17.90 20.39 20.90 22.21 22.30 22.41 19.70 17.64 21.99 23.52 29.82 21.54 27.30 20.38 21.00 25.00 26.09 29.72
24.09 23.39 22.78 22.79 22.85 23.00 22.60 18.92 12.30 9.97 9.05 5.73 6.38 7.98 7.57 10.90 9.63 15.37 12.56 14.20 15.18 19.25 18.02 18.51 20.92 24.23 26.66 24.71 21.10 21.86 20.21 29.27 27.88 22.97 26.29 21.94 21.06 21.06
24.88 24.77 25.20 25.13 25.19 25.11 25.57 21.29 15.74 11.12 9.55 8.18 8.42 5.50 3.38 5.68 6.68 8.72 9.72 8.90 16.58 16.51 17.30 18.85 22.12 25.22 26.88 27.00 23.89 20.59 23.66 17.49 25.23 28.33 29.26 27.62 22.26 17.41
26.67 26.61 26.79 26.18 25.47 23.07 22.87 22.31 21.54 18.82 15.80 13.77 11.72 7.98 1.87 7.63 8.05 11.08 9.39 14.31 14.49 16.43 16.05 16.09 19.56 22.97 24.62 24.02 24.87 24.23 20.70 19.69 22.38 22.39 21.70 28.33 28.99 29.19

GFSNE_sfc_wetblb_030.txt.gz
Wetbulb
37.63 37.43 37.71 37.69 37.72 38.15 38.47 37.36 33.63 25.52 24.60 26.28 26.80 29.73 29.72 30.19 31.68 31.66 30.53 34.48 35.99 36.01 36.07 36.64 37.32 37.91 38.25 38.76 39.21 40.04 40.57 41.33 42.42 42.46 43.15 43.85 44.82 45.46
37.31 37.05 36.88 36.80 38.31 37.64 35.82 34.36 32.05 29.78 25.56 25.68 25.73 26.79 28.28 30.50 31.55 30.58 30.00 34.53 34.16 35.04 35.78 35.80 36.39 36.93 37.38 37.77 38.27 38.72 39.65 40.82 41.85 41.66 41.79 41.97 43.13 44.14
35.66 35.55 36.76 36.41 35.20 34.07 32.15 29.93 28.37 27.75 23.23 23.78 25.19 25.68 24.79 25.15 27.30 28.32 29.82 28.97 29.80 33.96 34.23 35.14 35.34 35.50 36.63 36.52 37.03 37.90 38.55 39.44 40.34 40.71 41.27 41.68 42.15 43.02
35.06 34.83 34.71 37.08 32.37 30.93 28.61 26.70 25.38 24.88 23.38 21.14 22.18 22.64 23.39 24.46 25.61 25.43 28.62 30.82 29.35 32.60 33.47 33.59 33.67 34.74 36.25 36.57 36.94 36.83 37.27 37.69 39.01 39.68 39.50 40.12 40.74 41.32
34.96 33.22 32.80 32.24 29.72 27.83 26.25 24.77 23.68 26.45 22.98 21.60 21.38 22.71 22.81 24.03 24.62 25.86 26.20 26.35 30.04 31.95 31.43 31.59 32.30 34.16 34.46 34.90 35.34 36.30 36.30 37.95 38.17 38.72 39.01 39.10 39.35 39.37
35.00 33.31 31.82 30.19 27.45 25.90 24.82 23.27 23.70 22.20 22.51 21.55 21.63 21.93 21.93 24.11 23.89 23.14 24.17 25.94 25.05 27.98 29.11 29.45 30.94 32.28 32.21 33.14 33.89 35.45 35.77 37.59 38.13 38.91 38.80 38.24 37.64 38.49
31.19 30.79 29.43 30.16 32.59 27.96 25.13 22.89 22.70 22.00 21.46 21.28 21.00 21.34 21.69 21.85 21.84 23.82 24.03 22.87 23.35 24.42 23.91 25.40 26.02 26.57 27.86 30.95 32.19 34.59 34.31 36.45 37.12 37.56 37.30 37.49 37.28 38.32
28.40 27.35 27.47 30.63 31.22 31.25 30.42 29.24 26.24 21.56 20.25 19.53 20.54 19.64 19.72 19.79 21.36 20.81 20.97 19.96 19.06 23.55 22.37 23.03 25.36 24.80 26.78 27.78 31.91 34.61 34.79 34.83 35.81 36.63 36.85 36.84 37.29 37.92
27.39 26.76 27.48 29.23 28.39 26.12 26.92 26.25 25.14 25.96 25.16 21.66 19.00 19.17 18.73 20.09 20.53 20.65 21.44 21.49 21.30 24.26 24.05 22.22 23.39 22.84 26.15 29.11 31.82 32.98 34.20 35.20 35.84 36.36 36.64 36.25 36.72 37.26
27.63 26.93 25.96 25.37 25.33 25.07 23.51 22.77 22.71 22.71 23.13 23.67 21.49 20.63 21.20 22.99 24.18 25.41 25.37 25.55 25.25 25.28 24.69 20.98 23.04 22.48 25.26 26.80 31.53 33.14 33.83 34.73 36.31 36.20 35.05 34.29 34.66 37.55
28.57 27.85 27.26 24.95 27.12 28.60 24.00 22.92 21.65 21.92 25.48 26.73 26.88 27.39 27.46 27.67 28.02 26.31 23.11 22.31 20.46 22.44 24.97 24.41 22.61 21.54 22.63 24.13 26.96 32.61 32.97 33.45 34.88 35.10 33.67 34.34 35.12 37.11
26.71 26.46 29.47 25.97 28.14 27.66 23.07 21.56 18.85 20.68 21.66 22.22 22.62 23.21 24.55 24.72 27.44 24.99 24.48 21.75 21.59 20.60 24.71 25.02 24.31 22.93 20.30 22.59 23.99 24.16 28.97 32.31 33.72 33.80 33.60 34.44 35.79 36.96
26.40 25.15 25.12 28.68 28.42 28.51 28.47 22.31 20.14 22.88 22.94 22.99 21.68 21.42 22.00 23.05 24.16 24.80 24.82 23.77 22.28 21.83 26.45 27.48 25.90 25.02 23.41 21.98 22.86 27.14 31.02 31.51 30.85 32.12 34.13 34.85 35.76 36.29
26.17 26.17 25.45 28.90 29.30 29.42 27.89 27.67 28.20 25.47 17.52 16.58 17.07 18.34 18.86 19.92 22.49 23.70 24.71 24.87 25.26 25.00 27.11 28.64 27.73 24.65 21.40 19.99 22.17 28.09 29.19 30.44 32.08 31.38 32.45 33.45 33.67 34.05
26.76 26.97 27.77 29.21 30.11 28.26 29.15 28.89 24.80 20.38 14.89 10.08 15.75 15.67 17.33 20.27 22.92 22.77 24.13 24.35 25.15 26.63 28.47 30.07 29.28 27.09 25.69 23.38 22.47 23.93 25.67 27.83 31.11 31.75 31.89 31.85 31.86 31.89
26.25 27.30 25.11 24.92 21.17 21.62 21.51 24.53 23.04 20.92 19.11 15.92 13.43 14.47 16.91 17.68 17.99 20.44 20.58 22.28 22.31 22.41 26.55 26.71 28.10 28.91 24.33 24.57 23.41 22.98 24.75 24.78 26.14 30.24 31.99 31.89 31.88 31.89
25.46 20.55 19.91 19.56 21.33 22.13 20.85 21.60 20.92 19.15 16.89 12.59 11.90 13.03 14.89 17.13 17.70 19.53 19.56 20.91 18.33 19.09 21.19 24.23 27.17 28.90 26.90 25.14 19.13 21.41 23.41 23.86 24.57 28.70 30.74 30.88 31.26 31.88
24.82 23.58 22.77 19.90 19.62 20.98 18.55 18.85 16.66 16.47 17.66 15.95 11.43 13.15 12.74 12.52 15.18 18.57 19.50 17.55 18.47 19.13 20.84 23.36 21.91 21.94 23.16 24.73 27.95 22.68 21.03 25.49 26.98 27.48 30.13 29.16 29.09 31.05
27.16 26.04 24.89 19.82 18.61 19.56 19.75 19.46 18.69 16.05 16.10 16.42 15.51 10.18 9.34 12.65 12.29 14.95 15.92 16.88 17.60 18.65 19.78 21.76 21.62 16.16 18.86 13.49 23.73 29.79 25.36 26.60 24.27 21.69 24.20 26.63 27.91 29.16
25.19 23.52 20.37 18.81 18.71 20.30 20.27 18.91 18.37 14.14 14.45 14.38 10.75 5.05 2.11 8.06 9.10 10.85 13.69 8.52 14.25 18.07 18.31 19.67 19.54 19.63 19.85 19.20 19.69 22.96 29.38 20.79 24.73 25.36 20.58 27.08 27.84 29.15
26.61 24.71 23.15 21.72 20.86 21.51 21.53 18.39 15.63 14.78 14.22 9.14 7.47 6.58 1.40 8.40 7.80 9.32 8.95 10.54 9.62 18.09 16.36 16.11 18.78 22.63 24.17 25.49 17.87 18.97 22.33 28.04 29.22 26.70 22.39 24.50 23.74 22.32
27.08 26.73 25.62 24.45 23.36 22.33 22.15 22.27 19.41 18.66 16.57 11.29 7.73 4.55 0.74 3.58 5.04 5.00 4.74 10.28 12.62 12.77 16.62 17.90 21.02 23.62 25.51 25.48 21.34 16.32 23.24 16.66 23.58 27.90 29.22 26.88 20.12 18.30
28.65 27.38 26.95 25.98 26.14 25.05 24.58 23.05 22.16 21.75 20.79 17.88 14.44 10.65 1.47 5.32 6.40 4.69 6.45 15.20 13.01 11.89 14.36 16.02 18.23 21.03 22.35 23.89 23.48 20.53 22.66 17.95 18.87 19.84 19.81 28.06 29.17 29.47

GFSNE_sfc_wetblb_033.txt.gz
Wetbulb
37.06 36.71 37.03 37.67 36.50 36.73 37.02 37.21 35.24 28.78 25.12 27.67 27.79 29.09 28.87 28.67 29.51 29.57 28.40 32.94 34.40 34.53 34.61 35.56 36.35 36.88 37.45 38.00 38.69 39.44 40.06 40.60 40.95 41.51 42.15 43.21 43.91 44.23
36.10 35.68 35.48 36.39 36.86 36.51 35.65 33.83 33.40 28.47 24.31 26.07 25.68 25.96 26.43 28.69 29.20 28.04 27.74 32.94 32.62 33.53 34.01 34.20 34.81 35.84 36.18 36.36 37.12 37.87 38.34 39.09 39.61 40.09 41.22 42.71 43.07 43.30
34.75 33.95 34.73 35.46 35.02 34.04 33.11 30.92 28.81 28.28 25.44 24.17 24.64 24.64 23.77 23.72 25.25 25.73 27.74 27.01 27.63 32.39 32.96 33.60 33.60 33.67 33.90 34.83 35.85 36.67 36.96 37.77 38.34 39.05 39.75 41.71 42.58 42.63
33.77 34.00 34.17 36.47 33.12 31.28 29.39 27.83 25.98 24.71 23.32 21.00 21.88 22.33 22.61 23.43 23.91 23.97 27.01 29.26 26.98 30.94 32.38 32.21 32.05 32.00 32.45 33.07 35.29 35.43 35.82 36.35 36.44 37.62 38.40 39.93 40.88 41.35
33.65 32.99 32.37 31.85 29.13 27.98 26.52 25.04 23.75 25.68 23.12 21.41 21.39 22.31 22.42 22.99 23.44 24.54 25.12 25.83 28.36 30.87 30.27 30.39 30.68 31.14 31.74 32.55 33.43 33.61 34.38 35.34 35.52 37.10 38.06 38.66 39.20 39.47
33.84 32.92 32.07 30.29 28.36 26.21 25.21 23.72 23.39 22.12 22.18 21.21 21.36 21.42 21.54 23.11 22.85 22.24 22.23 24.55 24.32 26.68 27.93 28.54 29.87 30.72 31.52 31.18 31.68 32.76 33.37 34.65 35.54 36.08 37.66 37.68 38.07 38.76
31.00 30.55 29.27 29.54 31.79 28.18 24.97 22.88 22.30 21.36 21.03 20.34 19.81 20.18 20.61 20.05 19.61 20.71 20.13 21.31 22.80 24.22 23.83 24.61 25.50 26.36 26.72 28.98 30.35 31.88 32.40 33.98 35.12 34.65 36.33 37.74 37.71 37.55
28.24 27.88 27.44 31.65 32.24 32.34 31.75 30.01 25.58 21.72 19.92 18.60 19.09 18.71 18.37 18.85 19.03 18.92 19.32 19.60 18.90 23.79 22.82 23.76 26.00 24.73 26.05 26.80 29.77 31.63 32.59 33.17 33.88 34.66 35.13 36.56 37.11 36.76
27.58 27.11 27.02 28.18 29.45 27.97 29.99 28.52 27.16 26.97 26.39 20.60 18.43 18.56 18.34 19.65 20.04 20.24 21.12 22.00 21.64 24.20 24.16 22.54 24.49 22.81 25.78 27.64 30.35 32.03 33.54 33.98 34.09 35.21 35.88 36.34 36.23 36.14
27.69 26.85 26.01 25.88 26.53 25.63 24.03 23.03 23.03 23.45 23.25 23.10 21.00 20.75 20.89 22.05 22.41 23.99 25.15 25.06 24.19 24.27 24.37 21.16 23.79 22.64 25.46 25.89 30.37 32.29 33.45 33.48 33.74 34.46 35.50 36.29 36.17 34.82
28.44 27.64 27.06 25.83 28.15 30.14 24.51 23.34 22.76 22.91 25.65 27.02 27.17 27.37 27.48 27.27 26.24 22.83 20.81 20.78 18.90 20.79 23.16 23.10 23.04 22.90 24.30 25.60 26.06 31.41 32.70 32.52 32.99 33.65 34.35 36.21 34.54 33.62
26.86 27.29 31.10 27.45 28.67 29.75 24.07 22.17 20.18 21.81 21.64 21.71 22.55 23.65 24.34 24.04 26.12 23.60 22.40 20.16 19.64 18.83 22.59 22.02 23.07 25.14 22.29 22.31 22.32 25.09 24.83 31.09 32.19 32.97 34.13 34.01 33.65 32.70
26.90 26.05 26.23 30.08 29.50 29.73 28.83 23.33 21.71 22.84 22.32 22.30 22.65 21.71 21.90 22.24 22.76 23.44 23.44 21.91 20.43 20.07 24.15 25.17 24.53 24.79 25.69 22.00 21.40 22.85 25.33 29.19 30.07 32.32 32.95 33.73 34.43 34.65
26.52 27.24 26.81 29.50 30.38 29.73 28.63 28.31 28.35 25.37 19.35 18.01 17.00 18.12 18.09 19.06 21.20 22.49 23.31 23.29 23.94 23.52 24.64 25.58 25.56 26.32 24.38 21.59 19.47 22.89 27.63 29.29 29.18 30.32 32.14 33.86 34.86 34.69
29.16 27.81 29.02 29.77 30.42 29.17 29.97 29.88 25.54 20.66 15.93 10.43 16.71 16.02 16.52 19.64 21.98 21.96 22.99 22.87 24.08 24.90 26.29 26.44 26.33 26.46 27.22 24.49 23.26 23.19 22.81 26.78 27.72 27.86 30.02 32.06 31.68 31.80
29.33 28.70 28.10 27.77 25.43 26.10 22.67 25.71 22.80 21.40 19.36 16.46 14.48 13.80 15.80 16.62 16.42 19.14 18.21 19.79 20.08 21.84 24.48 26.21 25.62 26.73 26.38 25.63 24.76 22.50 23.03 23.31 26.63 28.09 30.10 32.03 31.83 31.83
29.72 26.59 25.36 24.46 23.83 23.94 21.85 22.53 20.69 19.36 17.12 13.17 11.32 12.59 15.57 15.98 15.99 17.22 17.64 16.83 13.27 16.78 19.89 23.16 25.54 25.36 24.34 26.60 21.50 21.20 22.69 24.64 25.93 27.48 29.95 30.18 31.48 31.56
27.62 23.21 23.66 23.27 23.05 22.74 21.31 21.38 17.79 17.32 18.46 16.59 10.70 13.25 14.62 11.79 13.85 16.65 17.30 14.14 14.11 16.67 18.45 20.73 21.20 20.92 21.00 22.12 28.31 25.72 23.16 23.88 26.51 27.21 28.73 28.37 28.38 30.31
27.62 23.86 24.06 24.44 23.39 22.63 22.04 20.83 19.53 18.58 17.42 16.34 15.28 13.60 11.53 11.25 11.05 13.33 13.49 14.12 13.84 16.17 17.66 19.56 18.84 17.46 17.53 15.60 21.19 29.53 25.28 26.25 25.19 22.49 24.84 27.29 27.65 27.70
30.20 27.47 26.39 26.53 25.27 22.25 21.44 20.77 20.15 16.78 13.43 14.35 12.66 11.34 9.22 8.05 8.20 10.15 11.30 6.49 11.50 15.87 16.84 18.25 16.84 18.64 18.11 18.38 15.53 20.13 28.49 26.50 25.16 25.47 23.12 27.33 27.95 29.10
28.62 28.15 26.42 25.35 24.27 23.31 22.79 21.80 19.84 15.76 11.22 8.19 12.97 13.48 8.19 9.82 7.37 8.83 6.86 8.48 7.93 16.08 14.97 15.30 17.92 21.86 23.63 23.41 14.64 17.45 21.21 27.06 29.35 27.44 24.40 24.95 24.21 23.25
28.76 27.00 26.49 25.99 25.56 24.35 23.23 22.35 19.28 16.15 13.26 13.73 13.63 13.40 9.95 8.03 7.67 5.57 1.18 5.04 11.64 11.10 14.13 16.75 19.68 22.14 24.18 24.25 21.62 15.16 22.10 19.18 23.98 27.84 29.00 26.89 20.93 20.23
29.42 28.06 27.77 27.77 26.83 25.89 24.65 22.90 22.04 20.73 19.77 18.12 17.04 16.09 9.66 7.68 8.79 5.17 2.92 8.76 12.22 10.68 11.73 13.33 17.33 19.59 20.35 23.51 22.86 21.62 20.31 18.67 19.22 19.24 21.10 27.92 29.35 29.41

GFSNE_sfc_wetblb_036.txt.gz
Wetbulb
37.19 37.08 36.07 36.57 36.46 36.26 35.38 35.72 35.98 29.68 29.88 29.55 29.40 30.97 30.03 29.93 29.87 30.56 28.99 31.52 33.49 33.88 34.04 34.67 35.54 36.37 36.50 37.25 38.24 39.04 39.22 39.86 40.58 40.87 41.73 42.14 42.69 43.18
36.01 35.30 34.98 35.54 35.73 35.63 35.54 35.12 36.28 33.01 28.68 28.58 28.37 28.13 28.49 29.13 29.31 29.60 28.24 32.27 31.68 32.43 33.24 33.58 34.26 34.86 35.26 35.41 35.81 36.25 37.07 38.36 39.07 39.51 39.88 40.36 41.37 41.99
35.00 35.27 34.62 34.67 34.95 34.53 33.38 32.26 30.58 30.28 27.86 28.73 26.89 26.80 25.95 26.06 26.77 26.92 28.03 27.71 28.63 31.59 32.18 32.75 33.05 33.11 33.24 33.46 33.79 34.42 35.01 36.72 37.54 38.13 38.54 39.07 40.05 41.32
34.20 33.25 34.26 36.17 33.69 32.83 31.21 29.73 28.12 27.04 25.16 22.92 23.70 24.19 24.39 25.43 25.24 25.20 26.65 28.52 28.68 30.34 31.59 32.06 31.59 31.73 31.91 32.17 32.36 32.83 33.97 35.28 35.77 36.12 36.88 37.07 38.81 40.04
33.29 32.71 32.53 31.73 30.77 29.46 28.42 27.33 25.88 26.49 24.58 23.01 22.46 24.11 24.36 24.69 24.67 25.55 25.81 26.83 27.87 29.99 30.00 30.16 30.79 31.43 31.76 32.16 32.51 32.84 32.77 33.49 33.91 34.67 35.46 36.15 36.66 38.76
33.36 32.91 32.50 31.18 30.00 28.81 27.45 25.96 25.01 23.51 23.05 22.34 22.30 22.48 22.69 24.03 24.05 22.73 22.11 24.30 24.02 26.44 28.12 28.85 30.23 30.95 31.32 31.59 31.72 32.25 32.31 32.69 33.49 33.80 34.85 35.77 35.63 37.03
32.27 32.00 31.65 31.75 33.39 29.54 26.44 24.97 23.36 22.40 22.29 21.98 20.79 20.94 20.67 20.46 20.01 21.91 20.31 22.17 23.51 25.41 25.41 26.55 27.88 28.34 28.88 29.77 30.18 31.05 31.40 32.34 33.24 33.77 34.23 35.10 35.25 36.47
29.67 29.29 28.64 32.37 32.80 34.31 33.56 30.11 25.80 23.25 21.89 20.18 20.13 19.17 19.21 19.77 21.39 20.14 20.32 20.10 19.13 26.39 24.76 24.79 27.49 26.71 28.18 29.18 29.70 31.09 31.94 32.80 33.74 34.78 34.49 34.45 35.56 35.52
28.84 28.42 27.82 27.95 29.97 28.51 31.42 31.64 29.73 29.03 27.18 22.95 20.13 19.72 19.20 21.25 21.46 20.63 21.42 21.83 22.07 25.33 25.32 22.76 26.12 24.84 28.02 28.68 30.28 31.27 32.15 33.13 33.90 34.05 34.43 35.33 35.58 35.51
28.38 27.85 27.10 27.04 27.32 27.27 26.39 24.86 24.51 24.47 24.75 24.38 21.90 21.40 22.00 22.87 22.99 23.48 23.08 23.44 24.03 24.74 25.38 20.32 25.29 24.55 27.45 28.67 30.16 30.78 31.97 32.91 33.27 33.41 33.25 34.04 35.11 35.64
28.41 28.75 27.83 26.87 28.81 31.31 25.69 24.04 23.78 24.31 27.25 28.07 27.49 27.41 27.90 27.84 27.24 24.16 20.85 20.23 18.54 20.56 24.13 22.35 24.29 24.05 26.47 27.23 29.18 30.15 31.67 31.83 32.36 32.73 32.99 33.56 34.59 35.74
28.76 28.91 31.39 28.53 29.90 30.73 27.09 23.90 21.60 23.38 23.52 22.63 23.05 24.24 26.08 24.90 26.73 24.48 22.64 19.37 19.17 18.28 24.16 21.73 22.72 24.23 23.41 27.02 26.83 29.24 29.05 29.52 31.73 32.29 32.57 34.05 33.16 33.11
28.49 28.60 28.42 30.60 31.96 31.19 30.57 24.61 23.15 24.56 23.27 22.39 22.67 23.29 23.77 23.59 23.68 23.98 24.01 22.14 19.86 18.97 24.06 24.32 22.73 23.23 24.75 25.12 26.49 27.70 28.88 29.34 30.57 31.43 31.40 32.88 33.84 33.61
27.71 27.85 28.32 30.47 31.38 31.44 30.29 28.99 27.99 25.75 23.09 21.81 20.71 21.08 21.11 21.04 22.43 23.05 23.71 24.24 24.10 23.05 24.96 25.16 22.75 23.80 24.09 23.54 24.05 26.59 28.34 29.49 29.79 30.14 30.80 31.99 33.07 33.74
28.99 29.26 30.92 31.39 31.54 30.75 30.67 29.72 27.84 25.58 22.20 20.24 19.85 20.27 20.09 21.75 22.78 22.75 23.72 23.50 23.73 24.11 25.58 26.05 25.32 25.30 24.69 23.65 24.89 25.65 24.66 27.25 29.17 28.93 29.81 31.22 31.92 32.13
28.97 30.87 30.76 29.80 29.31 29.75 27.98 29.46 28.57 26.04 23.53 21.27 19.37 18.92 18.33 18.69 19.55 20.85 19.82 20.80 20.06 20.62 23.51 25.28 25.68 25.42 23.12 23.19 25.12 25.02 25.70 24.12 27.90 28.55 29.64 31.18 32.59 32.40
25.21 30.72 29.24 26.82 26.55 25.97 26.14 26.09 26.01 24.04 21.32 19.32 16.90 17.15 17.35 18.20 18.77 19.61 19.39 19.11 17.09 17.11 18.76 21.84 24.59 24.66 24.60 24.32 24.65 25.19 24.97 25.23 27.69 28.57 28.83 29.82 31.42 31.30
28.68 27.95 25.07 25.91 24.95 25.05 24.98 24.74 24.63 23.86 23.10 20.72 17.55 17.14 16.98 16.95 17.21 18.15 18.92 17.46 16.49 17.71 18.12 19.93 20.46 20.28 22.69 23.28 28.21 25.41 25.47 25.93 27.95 27.87 28.56 28.00 28.45 29.79
29.25 28.81 26.79 26.47 24.92 25.52 25.39 24.52 23.76 22.92 22.45 20.98 19.47 17.04 16.18 15.90 15.19 16.49 17.03 16.55 16.26 17.33 18.41 19.49 19.08 18.14 17.04 16.52 22.48 28.05 24.94 26.39 26.17 26.22 26.95 28.13 28.21 28.99
29.05 28.23 28.05 27.49 26.69 25.89 25.34 24.72 24.15 22.77 19.28 19.29 16.37 15.44 13.52 15.08 14.25 14.92 15.99 12.85 14.41 16.68 17.96 18.75 18.20 18.44 17.88 18.10 19.26 22.35 27.45 25.34 27.11 27.17 25.84 27.56 29.38 28.97
27.72 28.04 28.95 28.51 27.89 27.13 25.93 25.23 24.51 22.28 19.03 14.82 16.67 14.74 12.29 14.68 12.91 14.19 13.98 9.94 10.73 16.86 16.49 16.40 18.50 21.50 23.11 23.78 18.79 20.59 25.23 27.14 28.49 27.50 27.01 25.91 25.91 26.73
28.79 28.29 28.15 28.32 27.69 26.07 25.29 24.97 24.32 22.53 18.73 15.79 15.08 15.52 14.59 14.52 14.27 13.50 11.04 11.83 15.65 15.97 15.87 17.69 19.47 21.12 22.72 23.81 23.19 20.23 24.03 24.29 26.31 27.14 28.29 28.47 25.43 24.31
22.61 25.23 27.39 26.00 27.71 27.52 26.76 25.25 24.09 22.78 21.69 19.35 18.45 16.18 14.83 15.37 14.78 14.40 12.45 12.38 14.68 15.27 14.79 15.44 17.20 19.35 19.96 22.66 22.61 23.51 22.82 23.60 23.99 23.24 24.37 27.22 29.06 28.85

GFSNE_sfc_wetblb_039.txt.gz
Wetbulb
45.31 45.67 44.73 44.54 44.30 43.58 42.68 41.62 38.83 32.86 34.39 37.59 37.32 40.24 40.31 39.18 36.97 36.76 36.22 34.42 33.20 33.63 33.77 34.08 35.28 35.83 36.35 36.79 37.22 37.85 38.69 39.19 39.72 40.22 41.16 42.11 42.40 43.09
44.89 43.86 43.44 43.43 42.99 42.86 42.22 41.96 40.35 36.92 31.88 37.39 37.59 38.34 38.31 36.40 35.83 35.34 34.85 32.74 32.69 32.24 32.51 33.03 33.86 34.52 34.94 35.36 35.76 36.18 36.63 37.03 37.63 38.37 39.46 40.42 41.15 41.55
43.00 42.60 42.36 42.64 41.87 41.93 42.27 41.51 39.92 38.34 34.62 36.25 37.60 37.18 35.42 34.61 34.77 34.71 33.57 33.12 33.49 32.23 31.97 32.34 32.52 32.90 33.37 33.26 33.49 33.96 34.31 35.00 35.75 36.46 38.09 39.34 40.24 40.71
41.77 41.66 41.28 40.65 41.18 41.63 40.95 40.06 38.89 38.82 35.91 33.03 35.27 33.81 32.90 33.97 33.35 31.87 31.51 32.13 32.80 31.91 31.01 31.53 31.67 31.69 32.03 32.40 32.94 33.32 33.58 34.03 34.20 34.81 36.26 37.22 37.79 38.62
41.57 40.99 40.86 40.89 39.99 40.38 39.85 38.59 38.02 36.27 35.38 33.12 32.16 33.30 32.62 32.76 31.35 31.36 31.02 31.68 31.47 30.90 30.45 30.63 30.91 31.67 31.96 32.34 32.81 33.25 33.57 33.67 33.53 33.44 33.75 34.74 35.63 36.41
41.15 40.57 40.84 40.13 39.67 39.54 38.33 37.54 36.38 34.88 33.78 31.79 31.07 30.92 31.24 31.65 30.29 28.07 28.22 30.35 29.71 30.77 31.07 30.66 30.66 31.43 31.60 32.00 32.31 32.70 32.90 33.23 33.35 33.35 33.39 34.24 34.42 34.89
40.35 40.01 40.10 39.95 38.44 38.19 37.17 36.96 35.16 33.09 32.08 30.73 29.91 29.92 29.32 29.07 27.07 28.10 26.95 28.06 29.33 30.99 30.56 31.46 32.05 32.60 33.17 32.80 33.02 32.60 32.30 32.48 33.16 33.58 33.90 34.16 34.61 34.95
39.09 39.69 39.60 36.93 36.85 35.33 33.99 33.05 33.44 33.03 31.02 30.22 29.44 27.94 28.35 28.25 27.82 27.07 26.37 25.24 24.02 31.58 29.15 28.82 31.73 31.07 32.61 33.88 32.68 31.78 31.93 32.34 33.13 33.65 34.22 34.69 34.75 35.37
39.08 38.90 38.15 35.96 34.44 36.07 33.91 33.75 31.55 29.91 30.21 31.91 28.78 28.89 28.20 27.71 27.72 26.31 26.67 26.10 25.60 28.64 28.30 26.12 30.52 29.83 32.84 33.06 32.90 32.13 32.06 32.19 32.79 33.63 33.74 33.77 34.07 34.43
38.86 38.78 38.12 37.52 36.35 34.62 33.75 33.34 33.50 33.24 32.10 30.60 30.83 30.69 29.70 29.15 28.73 27.96 27.27 27.14 27.92 28.88 29.46 23.61 29.25 28.98 31.96 33.07 33.00 32.54 32.21 32.15 33.06 32.99 33.34 33.11 33.32 33.32
37.53 37.38 36.77 36.06 34.58 32.48 31.98 31.54 31.84 31.60 30.79 29.54 29.73 29.35 27.61 27.89 28.89 28.77 26.03 25.05 23.69 25.63 28.86 26.44 27.97 27.77 30.01 31.33 34.19 32.36 31.87 32.34 32.62 32.45 32.87 32.72 33.51 33.98
36.41 35.93 32.77 34.39 32.83 31.81 32.58 31.74 29.93 30.91 30.87 29.94 29.77 28.87 28.91 29.45 28.40 29.16 28.13 24.35 23.90 23.13 28.74 24.60 25.41 26.00 24.83 31.30 32.68 33.94 34.48 33.01 32.60 32.48 32.60 32.90 33.20 33.64
34.52 34.78 35.64 32.26 32.34 32.33 32.22 32.36 31.72 32.17 29.85 29.53 29.02 28.85 29.15 29.72 30.00 30.15 29.63 27.36 24.51 23.99 28.21 26.10 24.83 24.92 24.71 25.65 30.00 32.57 32.92 33.28 34.42 33.98 33.27 33.62 33.21 33.16
34.05 35.37 35.75 32.79 32.14 32.29 32.32 32.26 31.20 29.13 30.46 29.62 28.52 27.45 28.08 28.48 29.58 29.99 29.65 29.04 28.78 26.63 28.16 27.88 24.40 24.38 24.10 24.89 26.14 30.84 32.14 33.41 34.09 33.33 33.95 34.27 33.66 33.49
36.13 35.23 33.01 32.28 31.67 31.11 31.73 32.04 30.99 30.00 29.92 28.92 27.72 27.73 29.03 29.78 29.60 28.65 28.56 28.72 27.92 27.79 27.41 28.28 26.91 26.10 25.51 24.29 25.24 27.32 28.80 31.08 33.40 33.03 34.37 32.58 32.94 33.87
32.68 34.09 32.95 31.24 31.49 32.14 31.39 31.71 32.42 31.50 30.40 29.35 28.94 29.41 29.68 28.07 27.70 28.48 26.76 26.48 24.87 25.52 27.59 27.83 27.37 27.20 25.47 26.43 26.95 25.97 29.14 25.99 31.25 31.80 32.87 32.44 33.50 32.47
32.25 32.25 32.22 31.59 30.37 29.81 30.66 31.36 31.35 31.27 29.51 29.47 29.24 28.02 27.27 27.62 27.32 28.20 26.48 25.32 23.36 23.65 24.49 26.58 27.21 27.06 27.00 26.21 25.78 27.53 28.54 28.66 30.84 31.04 31.61 31.23 32.73 32.35
31.87 31.19 31.54 31.33 30.61 29.22 28.79 28.86 30.28 29.32 29.02 29.21 28.76 27.95 27.49 26.98 26.96 26.93 25.98 24.59 23.28 23.38 23.65 25.34 25.08 25.24 26.60 28.69 28.03 27.24 28.35 27.50 29.86 30.79 31.71 29.94 30.93 32.23
29.57 31.41 31.61 31.46 31.38 29.56 28.24 28.71 29.42 30.15 30.12 28.92 28.69 28.17 27.79 27.20 25.70 25.96 25.52 24.31 23.21 23.30 24.04 25.03 23.96 23.51 21.47 21.79 27.96 26.94 26.79 27.76 28.08 29.26 31.17 30.39 30.21 30.98
31.22 30.61 30.80 31.60 30.43 29.06 28.48 28.79 28.83 29.88 28.88 28.27 27.98 28.62 28.05 27.01 26.24 25.40 25.42 23.86 23.29 22.61 22.68 24.36 23.69 23.21 21.80 21.92 22.54 27.36 27.16 28.13 27.86 27.87 28.86 31.25 32.91 29.91
20.91 24.91 31.29 31.67 31.06 30.65 30.14 30.19 30.27 30.22 29.45 28.34 28.01 27.33 27.35 26.65 25.87 26.05 25.52 21.07 20.62 21.51 21.26 22.41 24.03 23.40 25.35 26.82 23.50 26.12 30.22 28.04 28.95 28.47 28.87 28.68 29.85 29.59
19.17 20.02 20.81 22.69 30.84 30.96 31.12 30.99 30.17 29.87 28.92 27.63 27.27 27.34 27.31 26.10 26.06 25.41 25.29 24.33 22.84 22.66 22.58 23.73 24.51 25.43 25.62 25.02 25.05 25.82 28.23 29.95 29.07 28.36 28.00 28.48 27.92 26.54
16.34 16.55 17.77 19.53 21.05 23.37 24.65 28.66 29.88 29.33 28.87 27.45 26.14 26.16 26.40 24.95 25.83 26.57 26.11 23.69 23.04 21.79 22.04 21.87 23.07 24.93 24.03 24.58 24.73 26.04 25.37 27.00 28.60 28.07 28.35 27.07 27.90 27.61

GFSNE_sfc_wetblb_042.txt.gz
Wetbulb
48.06 47.73 47.08 46.68 46.42 45.91 45.17 43.81 40.85 37.19 38.31 41.61 40.94 43.75 43.38 43.07 42.49 41.36 39.89 38.77 36.19 34.77 34.27 34.26 34.84 35.51 36.07 36.83 37.27 37.64 38.36 39.08 39.46 39.85 40.15 40.76 41.40 42.25
46.37 46.13 45.81 45.63 45.67 45.41 44.49 43.97 43.23 40.51 37.06 40.76 41.06 42.22 42.38 41.56 41.40 39.66 39.08 37.25 36.42 35.72 34.05 33.55 33.88 34.35 34.72 35.07 35.37 36.08 36.35 36.56 36.93 37.40 38.17 38.90 40.04 40.82
46.21 44.76 44.16 45.11 44.59 44.49 44.19 43.61 42.40 41.64 37.44 40.23 41.31 41.97 40.96 39.53 39.34 39.50 38.84 37.78 37.16 36.02 34.58 33.48 32.82 32.74 33.08 33.40 33.62 34.12 34.65 35.27 35.64 36.24 36.79 37.51 38.69 39.70
44.42 44.93 43.94 43.85 43.88 44.14 43.32 42.58 41.85 41.97 39.39 37.06 39.54 39.52 39.50 39.38 38.36 37.32 36.54 36.32 36.30 35.87 33.95 32.66 32.33 31.95 32.15 32.66 33.07 33.52 33.83 34.22 34.67 35.17 35.37 35.85 36.62 38.12
44.82 44.33 44.05 44.14 43.21 43.32 42.71 41.90 41.66 40.54 40.29 38.08 36.91 38.98 38.48 38.16 36.97 36.85 35.94 35.70 35.90 35.23 34.66 34.33 32.94 32.64 32.48 32.54 32.98 33.27 33.61 33.92 33.99 34.13 34.31 34.26 34.66 35.15
43.96 44.13 44.20 43.83 43.32 42.80 41.98 41.77 40.82 39.69 39.33 37.81 36.73 36.28 36.44 37.00 36.17 33.79 33.13 34.70 34.03 34.94 34.98 34.28 33.35 33.33 33.12 33.24 33.23 33.41 33.56 34.11 34.04 33.85 33.66 33.66 33.87 33.94
44.00 44.20 44.38 43.37 41.25 41.17 41.57 41.39 40.71 39.10 37.77 36.36 35.31 34.88 34.49 34.28 33.14 34.01 31.43 32.84 33.62 34.75 34.16 34.88 34.90 35.02 35.73 35.37 35.00 34.74 34.03 33.34 33.36 33.71 33.95 34.03 34.57 34.92
41.98 42.94 43.67 41.33 40.08 37.57 36.69 36.46 37.38 38.25 36.83 35.83 34.66 33.22 33.73 33.87 34.29 32.25 31.13 29.88 28.30 35.37 32.75 32.07 34.56 33.62 35.10 36.20 35.10 33.82 33.33 33.45 33.20 33.31 33.59 33.77 34.37 34.85
42.07 41.74 41.53 41.70 40.07 41.77 36.47 34.74 33.68 32.87 32.39 36.42 34.21 34.06 33.50 34.21 33.87 31.05 30.94 30.44 29.77 32.54 31.82 29.63 33.63 32.31 34.89 35.55 34.99 34.62 34.14 33.51 33.33 33.17 33.33 33.88 34.44 34.15
41.21 41.28 41.02 41.45 41.96 40.91 40.10 39.32 38.54 38.22 36.54 34.70 34.83 35.66 35.76 35.39 33.56 32.07 31.32 30.97 31.85 33.01 33.28 27.60 32.51 31.54 33.69 35.38 34.56 35.18 33.78 33.16 33.02 33.19 33.41 33.89 33.74 33.91
40.28 40.57 40.57 40.30 38.38 36.94 38.30 37.83 37.39 37.00 36.41 34.17 33.71 32.52 30.83 29.05 29.35 31.34 29.22 28.73 27.82 29.55 32.59 30.16 30.68 30.25 31.40 32.62 35.28 34.61 34.42 34.39 34.26 34.12 33.28 33.21 33.49 33.66
39.68 39.73 35.77 37.09 35.58 34.52 36.89 36.34 35.37 35.82 36.33 36.12 33.63 31.82 31.15 32.27 29.09 30.85 30.75 27.84 28.00 27.13 31.75 28.76 29.10 29.04 26.51 31.34 32.88 34.02 35.45 34.58 34.10 34.27 34.47 34.31 34.14 34.77
38.07 38.29 39.18 34.87 33.98 33.63 33.44 35.55 35.76 37.40 35.16 33.75 33.43 34.25 34.03 33.34 33.17 32.90 32.76 31.42 28.91 28.20 31.75 30.04 28.20 27.81 27.25 27.44 30.23 32.86 34.53 35.06 35.86 35.54 35.25 35.16 34.85 34.56
35.94 38.90 38.96 35.64 34.71 33.65 33.21 33.10 32.47 32.70 34.92 34.64 32.01 31.62 31.71 31.78 33.35 33.46 33.67 33.40 33.20 30.90 31.92 31.09 27.74 26.77 25.60 25.13 26.13 30.32 32.76 34.45 35.15 34.35 35.87 35.52 35.13 34.84
36.57 35.77 34.08 33.65 33.83 32.87 31.98 31.56 31.29 33.81 33.51 32.54 31.83 31.02 31.60 32.50 34.13 32.93 32.61 32.61 32.13 32.14 30.95 31.03 29.43 28.77 27.24 25.29 25.03 27.52 28.85 31.84 34.37 34.35 35.40 36.27 34.99 33.57
32.50 34.77 33.49 32.75 32.86 33.80 33.21 33.44 33.10 33.67 33.28 32.66 32.30 32.26 33.51 32.54 31.47 31.68 30.11 30.60 29.08 29.58 31.22 31.60 30.63 29.50 27.23 27.89 27.50 26.63 29.22 28.19 32.88 32.89 34.82 35.66 34.93 33.85
29.50 32.41 31.71 32.85 32.93 32.93 33.52 32.95 33.13 33.53 32.87 33.63 32.42 32.33 31.63 31.03 30.11 30.79 29.79 29.32 27.60 27.60 28.11 30.04 30.90 30.82 29.66 28.43 26.63 27.36 28.65 30.81 30.95 31.68 32.54 33.40 34.39 32.94
30.52 30.33 31.59 32.56 32.68 33.41 33.45 31.75 31.45 30.90 31.59 32.99 32.94 31.64 30.77 30.00 29.71 29.39 29.31 28.37 27.44 27.77 27.52 28.84 28.67 27.94 27.99 30.15 30.86 28.57 28.36 28.85 29.61 31.12 32.87 31.99 31.66 33.30
25.86 27.24 31.36 32.76 33.22 33.14 33.66 32.62 30.98 31.35 32.22 31.23 31.69 31.49 31.26 30.97 30.01 28.66 28.25 27.54 27.21 27.89 27.98 28.77 27.73 26.30 22.89 22.68 29.53 28.14 27.66 28.78 28.76 29.96 31.30 32.07 31.50 32.12
25.29 24.56 25.11 27.17 27.10 30.30 32.78 31.93 31.53 32.75 31.25 31.64 31.82 31.89 31.66 30.32 29.55 27.69 27.91 27.47 27.17 27.63 26.77 27.73 27.90 26.66 24.02 23.78 24.62 28.32 28.53 28.90 28.73 28.65 29.32 31.88 34.42 30.85
21.68 22.14 23.16 23.40 25.21 25.76 28.46 33.50 33.14 32.59 31.89 32.05 31.25 30.96 31.33 30.49 29.48 28.28 28.25 27.04 26.30 26.44 24.67 25.85 28.53 25.03 27.35 28.53 26.02 27.68 31.04 28.13 29.00 28.48 28.84 29.47 30.22 29.98
19.81 19.75 20.61 21.61 22.11 22.79 25.02 26.61 29.96 32.04 31.68 31.45 31.32 31.33 31.33 30.94 29.62 28.32 28.59 27.10 25.98 26.37 26.23 27.91 28.38 27.66 27.57 26.21 26.08 28.60 29.39 31.30 29.95 28.45 27.92 27.55 27.48 26.08
17.81 18.50 18.77 19.00 20.65 20.78 21.37 21.97 23.35 26.19 31.44 31.05 31.19 30.51 30.75 29.65 29.64 29.26 28.44 27.35 26.95 26.66 25.66 25.76 27.12 27.33 26.73 26.12 25.87 27.73 27.14 29.37 30.08 30.16 29.72 27.32 27.33 27.28

GFSNE_sfc_wetblb_045.txt.gz
Wetbulb
46.34 48.96 47.65 48.07 48.17 47.35 46.24 44.54 41.79 37.39 38.41 42.19 42.26 45.64 45.00 45.00 44.44 43.83 42.90 41.68 40.28 38.14 37.76 36.60 36.13 36.22 36.28 36.65 36.98 37.54 38.16 38.64 39.20 39.53 39.79 40.08 40.63 41.37
46.68 46.40 47.09 47.97 47.02 46.41 45.81 45.11 43.70 41.00 38.09 41.54 41.85 43.88 44.54 43.07 43.78 42.39 41.55 41.23 39.67 39.05 38.38 36.91 35.42 35.25 35.33 35.44 35.49 35.78 36.36 36.82 37.29 37.45 38.12 38.70 39.39 39.88
45.66 45.88 46.12 46.38 45.89 45.86 46.00 44.40 42.99 42.08 39.18 41.48 42.55 44.16 43.38 42.72 42.44 42.38 41.43 40.25 40.01 39.15 37.92 36.64 35.48 34.53 33.94 33.96 33.99 34.38 34.71 35.25 35.76 36.46 36.97 37.51 38.40 38.89
44.03 44.69 44.81 45.25 45.88 44.82 44.40 43.97 43.16 43.48 40.94 39.11 41.51 41.44 41.95 42.68 42.30 40.42 39.10 39.02 38.49 38.21 37.98 36.14 35.29 35.01 33.97 33.80 33.57 33.61 33.93 34.24 34.60 35.09 35.80 36.44 37.13 37.46
44.01 44.69 44.56 45.31 44.53 44.84 44.17 43.89 43.42 42.15 42.46 40.45 39.34 41.59 41.18 41.42 39.75 39.84 39.15 38.44 37.95 38.51 37.84 36.46 36.13 35.29 34.53 34.58 34.28 34.12 34.11 34.23 34.20 34.42 34.91 34.98 35.44 35.75
43.63 45.30 45.29 44.25 43.92 44.09 44.66 44.32 42.96 42.46 41.85 40.26 39.29 39.16 39.55 40.18 38.80 36.50 35.90 37.89 35.82 36.25 37.01 36.06 36.49 36.34 36.40 36.11 35.68 34.83 34.77 34.88 34.91 35.01 34.97 34.54 34.35 34.26
42.68 44.07 44.97 44.25 42.13 42.02 43.00 43.88 43.34 41.60 40.76 39.55 38.11 38.23 37.63 36.86 35.46 36.63 34.63 35.13 35.17 36.21 35.61 35.76 36.07 36.03 36.42 36.79 36.86 36.84 36.34 34.76 34.08 34.41 34.41 34.54 34.49 34.70
41.28 43.59 44.32 42.18 42.37 38.84 38.67 38.08 38.53 40.04 39.66 38.60 37.80 36.34 37.06 36.93 37.07 35.50 34.23 31.76 29.03 36.21 34.09 33.08 35.22 34.27 35.67 36.36 36.13 34.45 34.48 34.45 34.06 34.05 34.07 33.90 33.81 34.33
42.15 42.22 41.91 42.23 40.92 42.52 39.40 36.64 36.44 35.52 34.90 37.55 36.31 37.25 36.46 37.29 36.33 34.18 33.63 31.87 30.80 33.35 33.09 30.95 34.40 33.41 35.46 35.41 35.79 35.58 35.33 35.11 35.07 34.34 34.17 34.16 34.02 34.05
41.65 41.59 41.57 41.72 42.11 41.28 41.58 41.44 41.44 41.31 39.59 37.24 36.73 37.29 38.50 38.74 37.30 35.53 33.80 32.05 32.39 33.58 34.54 29.03 33.38 32.17 34.35 34.88 34.93 35.40 35.63 35.26 34.76 34.87 34.98 34.93 34.36 34.10
40.63 40.87 40.90 40.86 38.98 37.79 38.45 38.91 39.58 39.92 39.28 37.35 36.94 36.49 32.09 30.63 30.65 34.03 30.53 28.90 28.95 29.65 33.58 31.45 31.56 31.28 32.71 32.76 34.92 34.08 33.72 34.14 35.08 35.10 35.11 35.03 34.73 34.41
39.17 39.97 37.23 38.18 36.14 35.57 37.95 37.09 35.66 37.55 38.95 38.55 37.71 35.60 33.07 33.73 30.81 31.06 31.01 28.28 28.64 28.36 32.44 29.91 29.48 29.43 26.98 31.70 32.78 33.92 34.81 34.23 34.28 34.83 35.43 35.30 35.60 35.78
35.07 36.27 38.07 35.89 35.60 35.45 34.99 36.92 36.19 37.32 36.28 36.77 36.87 36.11 35.78 35.36 34.52 32.92 32.10 31.10 29.73 29.42 32.91 31.49 28.90 28.36 27.79 27.69 30.56 32.35 33.13 32.94 34.39 35.02 35.07 35.25 35.45 35.03
31.95 35.00 36.12 34.29 33.62 33.62 33.56 33.79 34.14 33.16 35.83 35.09 34.07 34.89 34.63 34.30 34.65 34.13 33.81 33.84 34.76 33.09 33.71 32.77 29.78 27.98 27.29 26.66 26.36 30.37 31.70 33.47 34.17 33.94 34.83 35.41 35.36 35.29
31.54 31.20 30.30 31.03 32.13 32.67 32.73 32.82 32.59 34.01 33.67 32.83 33.04 33.50 34.69 35.59 35.46 33.31 33.91 34.86 34.06 33.89 32.67 32.64 31.28 29.41 28.95 26.88 26.06 27.77 28.60 30.66 33.56 33.48 34.34 34.25 34.41 35.17
29.24 30.40 29.29 29.10 29.13 30.49 31.93 33.98 33.39 34.01 32.92 33.01 33.07 35.03 35.62 34.44 33.35 33.18 32.15 31.81 30.71 30.34 32.98 33.79 32.11 30.83 28.21 27.96 27.88 27.44 29.18 27.47 31.87 33.30 32.83 33.68 35.00 34.09
26.74 29.33 31.77 32.65 32.37 32.80 33.45 33.99 34.59 33.97 32.51 33.68 32.61 33.18 33.60 33.31 32.33 32.99 31.63 30.83 29.25 28.80 29.61 31.46 32.59 32.26 31.32 29.60 27.56 28.60 29.02 29.77 31.64 31.26 31.17 31.67 34.03 32.18
27.04 28.18 28.46 29.50 29.05 29.15 30.69 31.10 33.56 33.38 33.08 31.99 33.33 33.44 32.58 33.05 31.56 31.72 31.50 30.16 28.29 28.08 28.92 30.01 30.08 28.67 28.56 30.06 31.59 29.09 29.27 29.19 30.11 30.73 31.84 31.06 32.17 32.13
25.17 25.35 25.59 25.85 25.71 26.55 28.06 27.96 27.02 33.23 33.49 32.43 32.13 32.50 32.73 32.25 31.61 30.67 30.24 29.36 28.43 28.00 28.68 29.99 28.57 27.01 24.00 22.67 28.91 29.10 28.25 28.63 28.96 29.76 31.02 30.85 31.18 31.71
24.05 22.96 22.94 23.38 23.27 23.34 24.51 25.94 27.27 28.27 33.17 32.59 32.71 33.03 32.94 32.20 31.58 30.33 30.13 29.17 28.25 27.66 27.66 28.88 28.01 27.32 25.58 24.33 24.47 28.67 29.54 28.54 27.97 27.67 28.81 30.32 33.02 31.58
21.92 21.46 22.02 22.54 21.80 22.28 23.09 24.51 24.33 25.02 28.53 32.51 32.36 31.78 32.15 31.23 30.89 30.69 30.42 28.98 28.76 27.30 26.01 26.67 28.36 26.13 28.15 27.66 25.69 27.37 31.00 29.12 29.14 28.30 28.00 27.68 28.18 29.48
19.81 19.27 19.80 20.59 20.75 21.00 21.77 22.84 22.72 22.61 24.88 25.34 31.56 31.78 31.97 31.71 30.68 30.94 30.13 29.02 27.73 27.71 27.05 28.70 29.50 28.79 27.00 25.73 25.15 27.44 29.55 29.78 29.14 28.02 27.79 26.99 26.00 23.63
17.67 17.88 18.73 18.92 19.51 19.81 19.48 20.15 20.33 20.95 21.04 23.90 25.60 28.40 31.78 29.76 31.04 31.36 30.57 29.42 28.58 27.45 27.40 26.64 27.47 28.18 26.37 26.22 26.05 26.53 28.25 28.78 30.19 29.01 29.68 27.46 27.14 27.10

GFSNE_sfc_wetblb_048.txt.gz
Wetbulb
45.98 45.57 44.69 45.67 46.14 45.29 44.43 42.38 38.77 33.71 34.89 38.23 38.44 41.03 40.61 40.41 40.58 38.63 37.99 42.87 41.32 40.19 38.99 39.31 39.47 38.66 37.59 37.45 37.45 37.81 38.04 38.49 38.80 39.08 39.61 40.30 40.65 40.94
45.73 44.87 44.74 45.28 45.31 45.11 42.15 42.33 40.66 37.14 33.00 37.16 37.33 38.72 39.30 41.19 41.33 39.05 37.94 42.25 40.90 40.15 40.02 40.06 39.77 37.95 36.90 36.59 36.58 36.32 36.71 36.98 37.28 37.74 38.10 38.48 39.15 39.79
45.30 44.58 44.44 44.97 44.31 42.46 42.14 40.88 39.77 38.90 35.26 35.70 37.84 37.82 37.66 37.97 38.34 38.45 39.30 36.22 35.82 40.31 39.75 39.32 38.86 37.60 36.43 36.12 35.69 35.77 35.75 35.97 36.01 36.41 36.92 37.34 37.95 38.69
43.64 44.13 43.80 44.60 42.07 43.15 41.12 39.99 39.26 38.71 36.25 33.60 34.91 35.45 35.87 36.48 36.26 35.29 37.96 38.19 34.66 39.25 39.25 39.02 38.27 37.28 36.82 36.18 35.84 35.66 35.52 35.43 35.44 35.58 35.77 36.21 37.00 37.68
43.62 43.08 43.13 43.29 42.88 42.16 42.46 40.19 40.00 41.26 38.54 34.67 33.19 35.37 34.97 35.21 34.44 35.09 34.31 33.57 36.92 39.85 39.06 38.48 38.50 37.90 37.28 37.04 36.44 36.55 36.53 36.01 35.59 35.27 35.23 35.29 36.02 36.33
43.20 42.99 43.17 43.02 42.80 42.13 41.19 39.51 40.24 39.32 39.27 36.08 35.08 33.43 33.18 34.48 33.67 31.21 29.66 31.37 31.19 36.05 36.45 35.81 36.70 37.54 38.05 37.82 37.13 37.23 37.26 37.11 36.42 36.08 36.03 35.69 35.28 35.07
42.20 42.87 42.53 42.70 42.16 41.35 41.23 38.20 37.02 37.00 36.13 34.42 32.18 31.58 31.12 30.76 30.27 30.65 29.95 29.60 29.43 29.96 28.65 29.32 29.67 29.94 30.62 34.92 36.44 37.99 37.64 37.70 37.21 36.65 35.26 35.52 34.99 35.04
40.23 41.33 41.33 41.44 41.29 38.98 38.45 38.33 38.24 36.63 35.37 34.83 34.83 33.38 31.00 30.75 30.68 30.39 29.03 26.29 24.47 29.52 27.31 26.50 28.73 27.81 30.51 30.35 35.61 35.61 35.15 35.89 35.88 35.45 35.01 34.76 35.17 34.86
39.94 39.78 40.57 40.97 38.17 38.71 37.85 36.88 35.69 36.26 36.25 36.21 33.90 33.81 33.22 33.23 31.95 31.20 29.31 27.58 25.71 27.08 26.45 24.38 26.51 27.18 29.94 33.42 35.53 35.52 35.34 35.90 35.86 35.71 35.56 35.07 35.06 34.82
38.71 37.82 36.77 36.66 37.21 36.97 35.49 33.78 34.94 35.97 36.74 36.07 34.37 34.86 35.23 35.26 33.00 32.26 31.12 29.39 26.51 26.97 27.42 23.94 26.30 25.56 27.88 29.10 34.83 35.05 35.22 34.54 34.59 34.89 35.22 35.16 35.19 35.17
37.81 36.83 37.08 35.99 36.68 36.27 34.23 33.35 34.10 34.71 37.37 37.39 37.42 37.07 36.44 35.54 33.10 30.15 26.54 27.18 24.04 25.38 26.94 25.45 26.10 24.84 25.34 25.36 27.04 34.44 34.20 34.61 34.58 34.62 34.65 35.00 35.33 35.07
32.88 34.21 34.50 34.53 34.60 34.77 32.17 31.91 31.11 32.34 34.51 34.19 34.06 33.75 33.18 32.64 32.83 31.25 28.31 28.04 26.56 24.62 27.88 25.44 25.06 23.01 19.93 24.82 25.69 26.72 26.88 31.37 33.46 34.16 34.58 34.89 35.07 33.22
28.22 28.63 29.27 32.50 32.04 31.42 30.90 28.29 29.00 31.62 32.24 32.57 33.18 33.20 33.45 34.82 33.19 30.67 30.75 29.31 26.55 26.17 29.51 28.18 24.94 23.60 21.34 22.60 22.77 24.50 26.20 27.02 27.70 30.25 33.67 34.70 35.26 34.70
26.32 27.12 27.91 30.17 30.19 30.02 29.81 30.20 31.20 30.99 31.39 30.58 30.72 31.83 32.10 33.70 34.12 32.28 31.00 29.42 29.52 28.65 30.80 30.21 25.23 23.78 20.28 20.71 21.67 23.23 24.36 26.67 26.80 27.01 28.07 32.91 33.72 34.17
26.55 27.69 27.96 28.74 29.23 28.91 30.56 30.73 28.95 28.24 28.92 29.23 29.13 30.07 32.18 33.79 34.56 33.78 33.24 32.30 31.61 30.76 32.85 31.28 26.03 25.74 23.15 22.39 22.45 22.89 23.49 25.43 26.32 25.94 29.05 27.28 28.16 31.76
25.16 24.10 24.37 26.13 27.26 28.49 29.15 30.16 30.74 30.37 30.19 29.84 30.68 32.23 31.32 30.02 31.79 32.66 30.50 30.68 30.00 28.69 30.87 29.96 28.86 27.75 23.10 23.98 24.22 23.46 24.02 23.63 25.95 26.64 25.84 27.19 29.74 30.51
21.92 22.67 23.99 24.18 24.10 24.24 24.47 25.76 27.24 26.43 26.65 31.65 30.99 31.02 29.18 27.27 31.55 31.99 30.53 29.91 28.07 25.10 26.41 27.79 29.00 28.50 26.68 26.25 22.61 24.04 24.46 25.37 27.21 25.09 26.66 27.03 31.12 26.85
21.87 21.03 19.70 19.57 20.53 21.34 21.81 22.10 22.87 23.49 24.73 24.85 30.87 30.44 28.59 29.72 30.17 31.42 30.83 28.62 27.34 26.53 26.47 26.31 26.20 24.82 24.55 25.62 29.11 25.22 26.55 25.16 23.33 27.63 27.63 27.86 28.52 27.61
18.47 18.89 16.35 17.51 18.68 20.05 20.60 20.64 20.55 22.35 22.55 23.72 27.77 27.74 28.01 27.00 27.11 29.28 29.58 29.04 27.89 27.41 27.32 26.98 25.16 20.76 16.11 14.51 24.03 30.06 21.94 24.00 27.17 23.11 24.05 27.07 27.13 30.13
20.08 18.41 17.22 17.62 18.39 18.44 18.37 18.94 19.59 20.13 19.96 20.71 22.66 27.39 23.68 26.19 24.34 27.93 28.51 28.03 26.91 27.20 26.28 26.29 24.04 24.15 20.11 16.50 14.42 19.41 29.85 21.78 24.23 25.42 21.92 26.16 29.91 30.92
18.20 17.56 16.62 16.73 16.81 17.14 16.54 17.27 18.12 18.42 18.59 19.47 20.25 22.81 27.50 28.13 25.07 25.50 27.55 27.68 27.52 27.93 25.77 24.76 25.00 24.25 23.84 21.19 12.32 16.18 22.26 30.66 27.25 22.39 21.06 20.89 23.39 25.13
15.53 15.56 15.89 15.64 15.53 15.52 15.48 15.27 16.12 16.04 15.95 18.12 18.70 19.81 21.60 24.79 25.36 22.49 26.23 28.62 27.39 27.28 26.81 24.96 25.45 25.41 23.01 22.21 18.87 14.04 23.31 26.60 27.76 28.70 27.81 25.46 19.30 16.43
12.99 14.97 13.74 13.93 14.34 14.28 14.68 13.26 14.37 13.90 14.70 16.48 17.13 17.76 18.37 18.50 21.14 24.46 26.46 28.92 28.41 26.48 25.98 23.46 24.72 24.14 23.58 22.96 20.30 18.44 21.82 24.95 27.40 25.79 24.45 27.80 27.76 27.63

GFSNE_sfc_wetblb_051.txt.gz
Wetbulb
44.50 45.57 44.91 45.10 45.43 45.44 44.74 41.84 37.86 31.99 32.10 35.22 35.84 39.08 38.36 39.19 39.69 40.93 38.25 42.19 42.32 42.12 41.86 41.89 40.97 40.79 40.52 39.29 38.65 38.36 38.40 38.12 38.58 38.94 39.13 39.62 40.19 40.63
45.44 43.83 44.71 45.24 45.60 45.33 44.58 42.40 39.31 35.64 33.32 35.19 35.80 36.55 37.84 39.92 39.35 39.50 37.32 41.62 42.41 41.17 40.66 40.64 40.82 40.90 40.01 38.86 38.11 37.80 37.70 37.57 37.77 37.93 38.12 38.42 39.11 39.38
44.31 43.85 44.15 44.92 44.25 44.23 41.61 39.42 37.76 36.56 33.22 34.28 35.32 36.46 34.99 35.73 37.67 37.84 38.35 37.75 37.31 40.95 39.97 40.39 40.45 40.11 39.88 39.22 37.81 37.47 37.15 37.23 37.38 37.36 37.49 37.23 37.97 38.54
43.67 43.85 43.84 44.60 42.69 40.95 40.24 39.20 37.78 39.02 36.20 35.22 33.91 34.23 34.52 35.11 34.88 33.95 37.08 38.56 35.60 38.88 40.82 40.15 39.72 39.20 38.76 38.19 37.55 37.61 37.04 36.79 36.88 36.73 36.96 37.10 37.15 37.62
43.55 43.28 43.08 42.90 41.38 42.29 42.68 41.59 41.54 41.36 39.44 37.48 37.43 34.39 36.16 34.63 34.37 33.41 33.96 33.90 35.24 38.97 39.36 39.00 39.29 39.42 39.30 38.09 37.93 37.64 37.42 37.42 37.41 37.13 36.56 36.19 36.32 36.76
43.15 42.81 42.86 41.81 41.78 41.27 40.19 39.03 38.50 35.56 36.10 37.36 36.58 36.37 33.43 36.73 34.04 33.59 31.25 31.81 30.72 35.43 37.13 34.87 35.85 37.19 38.61 38.70 38.60 38.46 38.25 38.14 37.95 37.87 36.88 36.17 35.98 36.21
41.88 42.39 42.09 42.35 41.75 40.13 40.46 39.21 35.21 35.17 34.97 33.94 33.81 31.26 31.04 31.64 31.78 33.10 31.54 29.73 31.03 28.82 29.24 27.88 28.15 28.23 29.25 33.43 35.06 37.11 37.05 37.18 37.50 38.08 37.56 36.68 36.13 35.80
39.63 41.22 41.25 40.78 40.06 39.05 38.76 38.25 37.21 34.08 32.08 31.18 32.91 32.59 33.32 28.97 29.26 30.26 29.89 28.75 28.16 30.40 28.33 26.90 27.71 26.57 27.92 28.06 33.55 35.61 35.82 35.71 35.97 35.98 35.99 36.02 35.47 35.11
39.55 38.90 38.30 40.68 37.14 35.58 34.95 34.80 33.90 35.07 35.08 31.97 31.12 32.17 32.73 33.00 30.25 30.56 31.75 31.39 31.49 32.09 26.37 23.56 25.07 25.02 27.17 31.76 34.89 36.07 35.34 35.14 35.48 35.26 35.36 35.36 34.85 34.44
36.49 36.34 33.90 32.96 33.69 34.25 32.83 31.33 32.08 33.42 33.95 34.25 31.61 32.57 33.40 34.52 34.14 34.39 33.52 33.08 30.54 28.11 26.74 22.33 23.92 24.15 26.47 27.01 32.56 34.77 34.58 35.08 34.80 35.11 34.92 34.62 34.56 34.47
34.30 32.72 32.81 31.56 34.16 33.48 29.30 26.86 26.53 27.49 32.66 35.08 35.34 35.63 34.93 34.90 34.86 33.32 29.49 29.96 28.27 25.73 28.02 24.92 26.06 25.07 24.77 24.21 26.30 32.61 33.67 33.44 33.70 33.62 33.95 34.18 34.35 34.25
28.64 30.40 31.56 30.92 31.79 31.34 26.94 25.34 24.10 24.84 25.32 26.70 29.15 30.79 32.27 33.07 34.88 33.71 32.36 28.00 28.11 26.06 27.46 24.81 24.61 23.28 19.59 23.25 24.82 25.44 24.58 29.61 32.14 32.80 33.11 33.64 34.08 31.45
25.84 26.03 25.84 29.39 29.29 29.21 29.82 27.22 26.70 28.32 28.34 27.57 29.33 29.38 30.27 31.55 33.45 32.13 32.03 32.42 30.52 28.07 27.65 27.35 23.89 22.34 21.41 21.11 22.50 24.28 22.28 23.98 24.90 27.54 30.80 32.19 32.77 33.81
24.68 25.01 25.15 27.47 28.01 29.03 28.76 30.44 30.87 29.89 28.67 27.64 27.30 27.82 28.60 29.39 31.30 33.91 31.72 31.10 32.21 31.27 30.18 29.29 23.25 23.39 21.09 19.06 18.81 22.98 21.79 23.39 23.29 24.93 26.32 29.02 32.07 32.61
24.61 24.59 25.79 26.61 27.28 26.73 28.17 27.82 26.02 26.31 26.34 24.74 24.99 26.97 29.70 30.25 32.71 33.08 32.52 32.01 31.28 29.96 30.54 30.06 26.93 26.65 24.61 22.32 20.39 21.43 21.11 22.74 23.94 22.73 22.95 24.37 24.80 27.14
23.72 22.72 22.97 24.45 23.96 23.41 23.62 24.56 24.04 23.02 23.09 22.15 22.59 23.43 29.07 31.50 31.71 32.43 31.63 30.54 28.73 27.34 30.80 31.39 28.84 27.66 23.10 23.69 23.22 21.22 21.88 21.12 23.86 23.03 26.41 20.06 24.28 31.24
21.40 18.99 20.59 21.22 21.26 21.20 21.33 21.59 21.11 20.66 20.25 20.35 19.90 22.22 23.59 30.81 29.89 29.26 29.48 29.93 28.22 23.06 25.69 29.07 29.39 28.47 27.26 26.53 21.69 22.59 22.99 21.93 23.09 25.98 23.47 19.33 26.54 30.18
20.03 17.48 13.30 11.13 16.50 18.68 17.98 17.48 17.68 17.58 18.96 19.47 19.00 19.99 21.52 25.63 28.78 29.87 30.80 29.33 27.31 25.44 24.52 26.43 27.10 24.55 25.03 26.34 28.15 23.55 20.78 22.67 22.21 24.87 24.75 20.04 24.98 29.75
16.66 16.44 10.60 9.72 13.35 17.57 16.96 15.84 15.11 16.67 18.24 17.58 17.58 18.44 20.45 21.00 27.14 29.09 28.67 29.48 27.69 26.89 24.97 27.12 26.06 21.12 20.93 16.93 22.98 29.82 21.71 23.01 21.96 21.63 21.80 20.64 24.59 27.79
19.21 16.73 13.12 13.46 15.20 15.54 15.13 14.33 14.77 14.92 14.94 14.92 15.31 17.46 18.35 19.60 18.59 26.89 27.84 27.43 26.86 26.28 26.50 27.16 26.51 25.19 21.68 17.22 14.69 18.04 29.28 21.31 21.79 18.06 18.77 20.99 26.69 30.83
17.04 16.00 12.63 11.67 13.50 13.69 7.81 7.10 7.24 11.70 12.37 10.97 13.27 15.69 16.58 17.03 17.12 18.64 25.48 25.61 27.61 27.46 25.80 25.52 26.90 26.50 25.18 21.41 10.47 12.17 16.83 28.83 27.27 22.21 18.68 17.62 18.77 21.90
12.45 13.59 13.70 11.81 7.41 8.32 3.04 4.15 8.56 9.41 11.48 10.58 12.36 12.26 14.11 15.65 15.50 16.36 18.76 24.49 25.54 26.39 27.14 27.54 26.37 25.28 23.78 21.34 15.83 7.82 17.37 20.28 28.15 29.82 27.91 24.80 17.31 14.09
7.26 9.39 7.32 1.93 1.76 2.49 11.79 7.46 7.29 9.55 8.96 10.38 10.32 9.87 11.38 12.99 15.05 15.44 15.97 18.18 20.09 26.09 27.28 26.47 26.30 24.81 24.02 23.00 19.10 15.39 18.75 19.29 24.98 25.16 23.24 28.06 28.36 28.39

GFSNE_sfc_wetblb_054.txt.gz
Wetbulb
47.04 46.97 46.06 45.50 44.26 45.43 44.96 43.49 40.33 36.05 36.61 35.95 35.70 38.24 37.81 37.64 39.54 42.05 40.70 44.11 43.40 42.91 43.10 44.14 44.29 43.37 42.68 42.14 41.83 40.96 40.18 39.31 39.15 39.11 39.10 39.54 40.05 40.58
45.65 45.40 44.82 45.26 45.18 45.14 44.61 43.93 41.89 38.84 35.20 34.82 35.44 36.28 37.42 38.92 39.02 40.39 39.92 41.97 42.91 41.88 41.88 42.43 42.70 43.12 43.07 42.09 41.67 40.36 39.76 39.16 38.80 38.56 38.59 38.81 39.02 39.29
45.09 44.47 44.42 45.08 44.19 43.81 43.17 41.62 39.94 38.16 36.58 36.29 34.86 35.55 34.34 35.11 36.94 37.41 39.38 38.17 38.60 42.19 41.66 41.41 40.97 41.26 41.37 41.46 41.31 40.59 39.47 38.66 38.36 38.24 38.18 38.46 38.99 39.12
43.77 44.40 44.27 44.97 43.31 42.55 41.48 39.52 37.68 37.64 35.68 35.92 34.66 33.73 34.01 35.35 35.59 34.20 37.03 38.64 37.81 39.89 41.94 41.32 40.63 40.13 40.02 40.15 39.72 39.41 39.13 38.79 38.02 37.72 37.89 38.11 38.37 38.80
44.11 43.65 43.57 43.16 41.84 40.95 39.81 39.03 39.83 41.06 39.86 38.12 36.89 36.20 34.62 35.34 35.90 35.24 35.57 35.10 37.92 40.87 39.95 40.55 40.44 40.37 40.14 39.15 39.18 38.96 38.75 38.35 38.09 38.00 38.14 37.76 37.61 37.58
43.81 43.48 43.01 42.58 40.55 39.55 38.79 36.45 37.44 34.93 35.20 34.94 35.66 35.31 33.10 34.22 33.09 33.15 33.01 31.55 32.87 37.07 38.83 38.25 39.24 39.71 39.83 39.40 38.96 38.93 38.88 38.62 38.65 38.57 37.88 37.46 37.22 37.16
42.55 42.40 42.51 42.13 41.49 40.12 38.58 36.05 34.42 32.77 33.46 32.98 32.07 31.58 30.20 29.00 29.64 30.89 30.07 32.92 31.96 30.78 31.96 31.06 33.72 32.20 33.17 37.70 36.67 38.44 38.64 38.28 38.18 37.40 36.75 36.96 36.90 37.02
39.76 40.58 40.74 40.82 39.79 36.88 35.77 35.28 33.66 29.98 28.50 27.67 28.46 28.79 30.52 30.48 30.00 31.03 30.65 27.11 29.67 30.21 28.71 30.49 31.79 32.01 31.94 30.19 33.21 34.94 35.69 36.65 36.30 36.28 36.17 36.05 36.09 35.46
38.22 39.67 38.55 37.15 34.26 33.02 33.29 32.89 32.08 33.53 33.62 29.79 28.38 28.91 29.35 29.96 32.01 30.93 29.11 29.95 30.33 32.45 28.82 31.13 30.56 29.74 31.59 31.28 34.47 35.46 36.00 36.10 35.81 36.08 36.01 35.38 35.07 34.55
34.94 33.60 32.23 30.77 32.22 30.92 28.34 26.22 26.10 27.04 27.40 28.48 28.28 30.06 31.09 31.92 32.30 31.56 30.75 31.93 33.70 32.71 31.37 29.22 26.48 27.14 27.90 27.15 32.66 34.28 35.52 34.58 34.40 34.64 34.61 33.86 33.71 33.95
31.66 31.01 30.42 28.59 30.92 31.23 27.12 25.17 25.08 26.06 30.11 31.40 31.72 31.91 31.88 32.46 33.01 31.02 28.56 28.14 27.11 30.37 27.91 29.43 25.59 27.00 26.43 25.68 27.00 34.22 33.54 33.51 33.23 33.35 33.42 33.80 33.64 33.62
27.62 27.68 29.36 28.23 29.35 28.89 25.86 24.90 24.88 25.83 26.93 28.51 29.13 28.85 29.90 29.90 32.26 30.86 29.96 27.56 27.93 24.72 27.31 26.66 25.71 26.40 21.50 23.11 23.74 24.53 24.64 29.95 31.87 32.06 32.34 31.91 32.44 29.77
25.35 25.38 26.02 27.55 27.58 28.70 29.68 27.00 26.71 26.58 27.35 27.20 26.75 26.60 27.39 28.37 29.30 29.35 30.50 30.49 29.11 29.92 28.89 29.96 26.58 25.10 23.33 21.03 22.12 23.49 22.76 23.27 23.93 26.24 29.70 30.95 31.43 31.50
24.56 25.28 25.30 26.62 27.70 28.27 27.34 26.95 26.54 25.05 23.21 23.32 22.10 22.87 23.79 23.87 25.56 29.24 30.96 32.32 32.53 32.21 33.70 31.72 27.81 24.09 20.57 19.15 18.87 22.50 22.28 22.10 22.08 23.37 23.58 27.60 29.50 31.33
25.19 24.84 25.38 26.19 26.61 26.23 25.51 25.07 23.69 21.86 20.35 19.13 20.54 20.07 21.22 23.94 24.67 28.74 31.38 32.98 33.46 32.15 33.43 31.62 26.87 25.63 23.83 20.90 20.31 21.28 21.47 23.37 21.83 21.44 20.11 21.57 21.47 19.90
24.14 23.79 23.20 24.49 24.07 23.70 23.41 23.28 22.21 20.63 19.37 19.17 18.79 19.68 21.10 21.33 22.19 26.35 30.61 31.53 29.91 29.43 30.35 31.23 28.83 28.18 24.20 23.69 23.56 21.11 21.61 20.49 21.13 21.55 22.03 18.72 19.97 19.54
21.96 20.18 20.55 20.44 19.49 20.21 20.15 19.38 19.10 18.81 17.42 17.23 17.45 17.04 18.08 18.66 20.21 22.62 27.85 28.81 26.84 25.41 27.15 28.49 29.96 30.34 28.58 27.34 21.24 22.44 21.71 20.95 21.57 22.70 22.81 17.02 19.40 21.09
21.72 18.59 15.28 13.79 15.48 17.36 16.41 16.03 15.76 15.39 15.98 16.54 14.55 14.81 15.89 16.94 17.47 20.56 21.52 28.78 27.15 27.50 27.02 26.38 28.00 26.78 26.13 26.38 28.66 23.55 21.29 20.57 21.63 24.13 22.85 16.93 19.99 24.92
18.75 16.65 13.26 11.68 13.20 15.68 14.91 14.11 13.23 13.96 15.18 13.84 12.43 11.93 14.78 15.61 15.63 16.92 18.78 22.78 27.31 27.33 27.18 27.25 27.75 26.27 18.66 16.45 23.66 29.39 21.35 21.83 20.78 19.02 22.21 19.49 17.21 25.47
18.99 16.70 14.93 14.94 14.75 14.14 13.97 13.01 12.77 11.08 10.11 11.79 9.65 9.97 12.22 11.92 13.24 14.74 16.33 16.37 23.02 26.96 27.12 27.48 26.99 26.22 21.97 18.32 16.51 18.24 28.77 19.37 17.76 19.26 18.98 19.59 22.34 28.47
16.24 15.31 15.14 13.83 13.03 12.87 8.32 5.00 0.23 3.24 4.89 1.12 5.29 9.95 6.80 9.20 10.61 14.06 14.78 15.11 16.50 25.08 26.46 25.59 27.24 28.50 25.91 21.27 13.73 12.69 15.23 26.49 25.80 23.26 20.51 19.77 17.60 21.03
13.95 14.15 13.53 11.92 9.25 7.97 2.18 1.27 0.58 -3.26 4.34 3.34 6.48 0.74 4.15 7.69 9.01 12.15 12.53 12.47 14.41 18.17 20.02 27.28 28.49 27.47 22.99 21.67 17.38 6.99 14.80 14.96 25.42 29.82 27.70 26.00 18.60 14.17
11.15 11.70 9.17 5.65 1.79 1.31 5.79 1.45 0.30 2.05 7.00 4.85 6.19 6.39 5.78 7.02 9.21 9.52 11.01 12.87 14.77 15.55 17.28 23.46 27.11 25.83 23.43 22.61 18.49 15.08 16.77 14.54 21.12 24.36 24.44 28.50 28.47 27.85

GFSNE_sfc_wetblb_057.txt.gz
Wetbulb
49.17 48.69 47.64 46.66 45.78 45.40 44.74 43.47 40.93 35.75 37.02 37.74 36.50 37.78 37.81 37.34 38.73 38.97 40.62 43.41 44.97 44.21 44.22 45.27 46.58 46.98 46.75 46.37 45.10 44.36 43.74 42.99 42.22 41.17 40.54 40.42 40.61 40.73
47.47 46.70 45.73 45.24 45.63 45.40 44.59 44.20 43.00 40.25 36.72 37.67 38.27 36.21 37.40 38.61 38.78 38.67 39.20 43.62 43.67 43.57 42.97 43.26 44.07 45.12 45.51 45.30 44.83 44.09 43.07 42.71 41.64 40.89 40.34 40.10 40.01 40.01
46.18 45.54 44.79 45.37 44.76 44.47 43.87 42.79 41.41 39.87 36.53 37.61 36.65 35.95 34.33 35.01 36.45 36.60 38.27 37.75 38.94 41.92 42.44 42.47 42.19 42.30 43.02 43.24 43.29 43.49 43.04 42.24 41.21 40.31 39.77 39.74 39.73 39.70
45.14 44.92 44.32 45.23 43.90 43.17 42.16 40.93 39.96 39.28 35.45 33.45 34.64 33.67 33.13 34.66 35.18 34.40 37.39 38.26 36.69 39.66 40.85 41.82 42.06 41.45 41.26 41.34 41.35 41.46 41.34 41.59 40.78 40.01 39.53 38.88 39.02 39.07
44.76 44.33 44.25 43.94 42.25 41.37 40.83 40.36 39.75 38.96 35.80 33.96 35.02 34.30 33.80 34.12 34.18 34.47 34.35 34.93 36.24 39.95 39.92 40.10 40.87 41.57 41.61 40.88 40.56 40.53 40.26 40.33 39.50 39.07 38.80 38.66 38.00 37.93
44.43 44.20 43.79 42.97 41.80 40.60 40.20 38.13 35.80 33.33 32.41 31.23 31.14 31.29 31.53 32.96 31.61 30.76 32.21 32.03 32.97 36.42 38.16 37.99 38.72 39.90 41.00 40.98 40.23 40.19 39.76 39.49 39.20 38.96 38.10 37.41 37.40 38.10
43.33 43.18 42.97 42.80 41.57 40.38 39.02 35.63 31.51 29.67 29.08 28.21 27.44 27.59 27.69 27.26 27.68 29.17 30.04 31.76 32.59 31.50 32.75 33.03 32.50 33.49 35.29 38.52 40.17 40.07 39.10 38.05 37.91 38.82 38.64 38.16 37.29 36.42
41.42 41.49 41.50 40.64 36.88 35.78 35.60 34.83 32.23 28.28 26.15 25.71 25.82 26.34 26.19 27.26 27.27 27.67 29.71 28.65 26.77 31.03 29.19 30.69 29.47 29.39 30.52 30.61 35.81 37.21 36.94 36.90 37.44 37.81 37.81 36.96 36.22 36.10
40.18 39.62 37.69 35.45 34.31 32.79 31.64 30.69 30.14 30.90 31.92 27.04 24.24 24.71 24.76 25.61 27.66 27.67 26.34 25.80 25.60 28.52 29.96 28.84 32.42 30.25 32.01 33.54 35.36 35.65 35.82 36.00 36.32 36.40 36.36 35.79 35.76 35.09
36.20 35.63 32.91 31.98 31.41 28.84 26.57 25.15 25.77 26.14 26.53 27.19 25.26 25.36 26.20 27.67 28.32 28.08 27.35 28.52 28.62 29.54 30.59 27.18 30.39 28.92 29.18 29.79 33.95 34.66 34.59 35.91 36.11 35.91 35.44 35.36 34.62 33.84
30.34 29.57 28.41 27.42 30.15 29.81 26.39 25.41 25.85 27.28 30.14 31.03 31.28 31.78 31.75 31.81 31.69 29.79 28.11 26.68 24.70 25.80 28.04 29.27 29.11 27.51 27.11 26.37 29.16 32.89 34.73 35.39 35.18 34.59 34.17 33.54 33.69 33.43
27.06 26.93 29.12 27.53 28.13 28.30 26.33 25.87 24.91 24.98 25.07 25.91 27.37 28.03 29.10 29.02 30.69 29.58 27.97 26.07 25.96 25.27 27.42 27.29 27.36 26.17 25.13 25.37 25.35 26.59 29.90 33.77 33.13 32.48 31.91 32.01 32.05 28.01
25.18 24.70 24.92 26.89 27.48 28.77 28.88 25.94 24.42 24.00 23.19 23.24 23.97 23.26 24.22 24.88 25.51 25.93 25.74 26.83 26.20 26.73 29.67 28.81 27.13 26.25 27.59 24.01 22.95 24.77 25.95 26.33 24.92 26.04 30.16 30.94 31.12 30.46
24.93 24.61 24.76 26.69 27.70 28.04 25.52 25.49 24.85 23.35 20.74 19.85 19.89 20.44 20.20 20.71 21.82 23.27 24.50 25.22 27.94 30.00 32.60 32.43 29.35 27.16 25.51 22.47 21.66 22.49 22.41 23.69 21.37 23.10 23.24 27.07 29.08 30.07
25.26 25.07 25.48 26.33 26.59 25.56 24.45 23.81 22.74 20.90 18.73 17.05 17.37 17.71 19.10 20.18 21.73 21.76 23.44 24.49 28.08 32.32 33.39 32.77 30.96 28.96 27.19 22.14 20.69 21.48 22.73 23.12 21.94 21.37 19.39 20.08 20.30 18.67
24.12 24.56 24.02 25.16 23.94 23.23 22.84 22.07 20.62 19.67 18.14 16.88 16.40 17.52 17.70 18.05 18.30 19.86 19.41 20.97 21.89 28.90 31.07 30.45 31.58 29.87 26.26 24.76 24.89 20.94 23.55 20.90 22.16 22.76 21.00 17.56 18.71 15.44
23.43 22.65 20.27 20.03 19.26 19.86 19.58 18.90 18.27 17.86 16.34 16.24 15.87 14.84 14.40 15.14 16.52 17.89 17.72 18.98 18.86 23.80 25.93 27.69 29.71 29.80 28.93 27.58 23.65 23.51 24.57 21.06 22.29 23.19 21.68 16.42 15.31 17.67
21.91 18.11 15.80 15.17 16.45 16.93 15.83 15.46 15.52 15.04 14.41 14.37 13.80 13.30 11.74 12.71 13.60 14.59 16.41 16.63 17.60 18.25 26.34 28.63 27.46 27.66 26.96 26.71 30.08 25.54 22.34 21.35 21.73 22.82 22.23 16.95 17.31 17.33
18.80 16.54 13.74 13.35 14.66 15.54 14.82 14.06 13.11 13.58 13.16 11.83 12.17 10.57 10.38 11.78 9.08 11.04 13.31 14.82 15.17 17.60 17.94 28.09 26.60 25.73 21.28 16.68 24.79 30.78 22.52 22.47 20.41 18.12 21.02 20.09 15.54 18.73
19.14 16.32 15.00 15.29 14.60 13.80 13.27 12.11 12.16 9.88 8.78 8.95 9.10 5.61 6.64 7.07 6.78 8.19 10.63 11.62 13.18 15.23 16.65 26.43 27.15 27.27 23.78 20.16 19.68 20.16 28.79 21.23 19.15 14.94 16.57 19.42 21.00 25.71
16.65 16.13 15.54 13.87 12.97 12.38 11.09 8.54 6.17 4.85 3.37 -2.54 0.73 0.32 -1.59 4.67 5.24 6.97 8.65 9.51 11.23 14.53 14.55 17.29 22.40 28.68 28.79 23.97 16.23 16.12 14.77 27.01 24.15 20.27 17.57 17.63 16.72 18.18
15.00 14.91 13.94 12.52 11.12 10.41 7.30 3.00 2.86 -0.45 -1.96 0.23 -4.85 -6.30 -4.49 0.34 4.17 6.07 6.49 6.28 10.11 12.90 15.24 17.34 20.10 26.71 24.67 23.01 19.73 13.30 16.28 14.75 23.37 29.17 27.68 25.23 17.93 14.15
12.85 12.67 11.22 9.10 7.42 6.65 6.96 2.53 -0.02 -3.94 -1.81 -0.18 1.10 3.73 -5.03 2.63 6.35 6.51 5.72 6.90 9.58 11.64 13.52 14.91 17.31 24.46 24.90 24.15 21.84 18.44 17.95 15.62 19.93 22.38 20.77 28.53 28.69 27.92

GFSNE_sfc_wetblb_060.txt.gz
Wetbulb
50.26 49.75 50.54 48.65 47.75 46.47 45.37 44.14 43.14 38.67 38.39 40.63 40.15 40.39 41.26 40.69 40.25 40.70 40.28 41.97 43.67 44.25 45.00 45.75 47.08 48.00 48.26 48.41 48.66 48.58 48.07 47.46 46.76 45.72 44.76 43.70 42.80 42.54
49.06 49.25 47.92 46.58 45.77 45.94 45.02 44.34 43.66 41.61 38.80 40.95 39.36 40.31 40.51 39.61 40.31 40.62 39.44 42.32 43.17 43.08 43.27 43.97 44.57 45.35 46.13 46.55 46.98 47.07 46.99 46.51 45.66 44.92 44.26 43.00 42.70 42.39
46.82 47.40 46.15 45.20 45.22 45.04 44.88 43.99 43.00 41.48 38.56 39.44 38.60 37.87 37.52 37.69 38.54 38.54 38.73 38.73 39.39 41.61 42.21 42.54 42.76 42.97 43.36 43.75 44.18 45.12 45.41 45.36 44.24 44.10 43.29 42.83 42.38 42.14
46.83 46.31 45.45 45.52 44.65 44.39 43.10 41.63 40.98 40.24 38.47 35.77 37.16 37.04 35.78 37.13 36.66 36.13 37.91 39.13 38.03 39.36 40.73 41.25 41.41 41.57 41.72 41.76 42.02 42.20 42.76 43.16 43.03 43.09 41.38 41.53 40.84 41.30
46.38 46.20 45.37 44.77 43.34 42.64 41.67 40.10 40.83 40.45 38.31 37.11 36.89 35.93 35.23 35.21 35.26 35.45 35.51 36.13 37.03 39.32 39.86 39.93 40.23 40.65 40.75 40.96 41.63 41.51 41.72 41.69 41.60 40.79 40.08 40.78 39.92 39.52
46.03 45.83 45.18 44.56 43.28 41.25 40.48 39.05 37.92 36.40 35.09 33.55 31.86 32.03 32.48 33.56 32.38 31.32 31.05 33.40 33.03 35.43 37.09 37.27 38.06 38.97 39.53 39.84 40.22 40.93 41.28 41.53 41.36 40.71 39.64 37.91 36.83 37.95
44.57 44.59 44.31 43.52 41.79 41.24 40.09 37.15 35.10 32.85 31.67 30.71 28.70 28.85 28.49 28.72 28.34 29.78 28.82 29.34 30.47 32.07 32.34 33.62 34.27 34.53 34.89 36.12 37.19 38.41 39.91 40.39 40.47 39.98 38.38 36.29 36.53 37.77
42.53 42.29 42.21 40.34 38.23 36.75 35.83 34.83 33.98 30.59 29.40 27.25 27.13 26.25 25.41 26.65 27.75 27.07 27.16 26.50 24.62 30.03 29.10 28.62 30.90 30.51 32.32 34.03 35.17 35.80 37.09 38.52 39.34 38.68 36.75 36.39 37.28 37.46
41.65 40.38 37.67 36.21 35.07 33.40 32.45 31.18 30.01 30.37 30.58 27.33 24.82 24.76 25.27 26.56 26.35 26.00 26.67 26.30 26.10 29.19 29.25 26.80 30.50 29.35 32.08 33.46 35.48 36.45 36.26 37.37 37.43 36.74 36.65 37.09 36.45 35.94
39.63 36.82 34.02 32.17 31.83 30.33 27.78 26.90 26.79 27.61 28.00 27.71 25.95 26.55 27.02 27.79 28.43 29.03 28.13 28.01 28.44 29.65 30.27 25.28 29.66 28.99 31.59 33.15 34.11 35.58 35.98 35.90 36.34 35.63 35.91 35.94 35.59 35.12
32.24 32.26 31.29 29.93 30.68 30.06 27.15 26.70 27.08 27.77 29.41 28.89 29.02 30.05 30.39 30.16 29.32 28.21 25.81 24.91 23.71 25.79 29.32 27.46 28.39 28.45 30.40 30.77 32.48 32.62 34.05 34.87 34.89 35.48 35.51 35.20 34.33 33.68
28.54 28.81 29.45 28.53 28.89 29.27 27.71 26.46 24.98 24.61 24.08 23.84 24.96 25.91 26.27 26.75 27.16 27.12 26.47 23.25 23.23 22.73 28.24 26.55 28.13 28.54 27.11 29.74 27.61 29.38 31.58 33.55 34.57 35.11 33.82 32.83 32.69 32.04
26.02 25.06 26.30 28.07 29.12 29.72 28.17 26.04 24.57 23.71 22.57 22.37 22.05 22.68 23.55 23.35 23.51 24.10 24.62 23.64 21.86 21.07 26.34 27.50 28.02 28.70 27.55 27.88 26.75 27.01 29.12 30.90 31.36 31.62 31.65 31.68 31.73 31.45
25.52 24.27 25.61 28.31 28.96 27.58 25.92 25.61 24.00 22.67 21.63 19.99 19.62 19.58 19.43 19.80 20.65 21.54 23.02 23.51 24.70 24.23 25.93 26.66 27.04 29.30 28.11 27.10 25.25 27.55 27.17 27.69 27.99 28.50 28.86 28.80 29.41 30.70
25.59 26.00 27.25 28.12 26.83 25.34 24.80 23.65 22.03 20.70 19.09 17.47 16.92 17.26 18.31 18.78 19.65 20.90 22.23 22.46 22.83 24.26 25.53 28.23 30.21 30.96 29.92 27.24 25.37 25.37 25.99 27.21 27.47 27.63 27.37 27.16 27.49 27.60
24.82 25.05 25.37 25.13 23.91 23.44 22.37 21.62 20.04 19.20 17.63 16.43 15.88 17.02 17.41 16.51 16.11 18.60 17.47 18.65 18.52 20.90 23.63 27.45 32.24 31.25 29.25 28.34 27.52 26.05 26.10 26.19 26.66 26.77 26.69 26.50 26.85 26.10
23.53 22.45 21.31 20.52 19.86 20.32 19.25 18.69 17.97 17.27 15.83 15.43 14.51 14.22 14.00 13.65 13.93 15.97 14.71 16.07 15.17 16.38 18.26 22.02 26.99 31.45 30.76 29.41 26.21 26.77 26.80 26.47 26.96 27.03 25.83 25.28 26.36 27.10
21.98 18.76 16.46 16.81 16.95 17.38 16.45 15.73 15.81 15.19 14.66 13.68 12.64 12.87 11.40 10.88 11.88 11.84 13.10 12.79 13.51 14.83 16.28 18.97 20.79 26.20 27.85 28.15 30.23 26.64 26.49 26.85 27.16 26.37 26.06 24.21 26.02 27.40
18.79 17.22 15.35 14.90 15.79 16.08 15.50 14.77 13.36 14.31 13.14 11.75 10.80 11.26 9.96 9.41 9.50 8.92 9.85 10.44 10.85 13.07 14.52 16.99 19.74 21.37 23.84 21.07 26.72 31.16 27.24 25.88 26.05 24.68 25.75 24.94 25.21 26.20
19.03 16.50 15.30 15.49 15.86 15.04 14.37 13.07 12.43 11.70 9.68 9.23 8.80 8.60 6.96 7.03 7.04 6.46 7.36 7.28 8.42 9.80 12.16 16.30 18.30 19.43 17.16 23.03 23.85 26.05 30.74 26.97 24.97 24.10 23.75 24.43 25.66 25.74
18.31 17.28 16.38 15.04 14.37 13.71 12.49 10.89 9.53 7.77 7.02 5.10 5.13 5.44 4.63 4.15 4.53 5.23 5.96 5.94 5.74 8.71 10.10 12.67 16.67 20.83 21.54 23.80 23.83 23.26 25.48 27.31 26.79 25.30 23.36 23.56 23.65 23.90
16.11 15.80 15.07 13.83 12.12 11.55 9.77 7.86 6.13 5.95 5.39 5.02 5.40 1.99 -0.04 0.39 2.28 3.23 5.39 5.36 6.04 7.58 9.54 13.70 16.93 19.20 18.92 23.06 23.87 22.20 22.76 21.55 24.70 28.82 26.76 27.08 24.49 21.51
13.37 13.00 11.61 10.23 9.36 8.16 7.88 6.20 3.97 2.65 2.53 2.52 1.34 1.93 -2.06 0.81 4.12 5.76 5.99 6.12 6.32 6.81 8.14 10.79 14.13 16.38 17.94 20.56 24.57 23.48 21.24 20.55 23.95 24.73 26.34 28.56 28.60 28.14

GFSNE_sfc_wetblb_063.txt.gz
Wetbulb
58.85 59.46 57.92 57.50 56.25 53.95 51.04 52.89 49.68 44.75 44.29 47.10 49.02 48.14 48.22 45.33 46.01 45.13 47.68 45.34 43.05 43.37 43.97 45.03 46.19 46.85 47.58 48.17 48.85 49.60 49.82 50.34 50.28 49.49 48.77 48.21 47.92 47.17
57.76 56.51 55.53 55.23 53.39 51.23 51.61 50.50 49.31 49.09 47.01 47.53 44.85 45.29 45.49 45.65 43.65 46.12 47.32 42.02 43.18 42.39 42.45 43.04 43.69 44.81 45.42 46.00 46.26 46.74 47.08 48.34 48.94 48.81 48.22 47.26 47.41 46.85
54.17 53.27 53.29 52.63 50.86 50.12 50.06 50.14 49.05 46.04 44.26 43.05 43.75 42.99 43.19 42.48 44.08 46.65 45.88 45.96 45.58 41.70 41.37 41.63 41.83 42.05 42.54 43.00 43.35 43.97 44.39 45.06 46.03 47.03 47.05 46.55 46.65 46.56
51.21 50.69 51.60 49.58 48.70 49.33 46.97 45.09 47.06 44.27 41.77 40.62 41.81 41.45 41.31 45.31 45.23 44.06 43.20 42.69 43.53 41.75 40.51 40.52 40.79 40.86 40.57 40.88 41.12 41.42 41.84 42.58 42.99 43.61 44.73 45.47 45.12 45.10
51.32 50.37 50.43 49.14 47.73 45.53 44.63 43.00 43.81 42.91 44.89 41.11 41.59 42.42 40.46 43.41 42.37 41.78 41.21 41.06 39.91 38.91 38.14 38.44 39.06 39.59 39.06 39.19 39.56 39.75 40.32 40.68 40.97 41.38 41.62 41.95 42.59 43.37
50.69 50.00 48.82 47.64 45.72 44.94 44.08 41.77 44.15 39.69 38.92 40.48 36.19 36.89 38.86 41.07 39.56 37.43 35.79 36.72 35.92 36.59 36.94 36.10 36.71 37.32 37.65 37.81 37.56 37.30 37.91 38.34 39.66 40.38 40.56 40.04 39.80 40.93
48.08 47.84 46.79 46.14 43.55 43.29 42.59 39.71 39.01 37.27 34.90 33.91 33.49 34.23 35.39 36.77 34.85 34.87 32.81 34.31 35.75 35.95 35.64 36.12 36.48 36.14 36.75 36.49 36.79 36.85 36.74 36.43 37.37 38.58 39.03 39.47 39.48 38.74
45.22 45.18 44.39 42.50 40.38 38.68 38.27 37.41 38.94 34.70 32.72 32.89 32.59 31.71 32.84 32.92 33.62 32.77 31.94 31.28 30.60 36.93 34.25 33.73 36.07 34.68 36.14 37.55 36.19 35.55 35.86 36.45 37.10 37.55 39.20 39.05 36.54 35.68
43.79 42.02 40.00 37.85 36.49 35.11 33.77 32.80 32.11 31.81 32.45 33.28 30.82 30.08 30.40 32.91 32.28 31.26 31.06 30.75 30.48 33.51 32.78 30.63 34.71 33.23 36.03 36.56 36.05 35.78 35.74 36.05 36.93 36.93 38.06 37.60 36.46 35.40
41.65 39.33 36.15 34.59 33.94 31.88 29.59 28.11 28.36 29.26 29.48 29.51 31.11 32.16 32.47 32.99 32.96 31.94 31.22 30.94 31.76 32.73 33.51 28.53 33.31 32.16 35.59 36.77 36.07 36.02 35.03 35.03 36.51 36.65 36.84 36.19 35.14 35.38
35.12 34.85 33.85 32.23 32.23 32.15 29.38 28.11 27.98 28.84 29.82 28.46 28.17 28.35 28.78 28.30 28.84 30.12 28.66 27.74 27.30 28.97 31.49 29.50 31.26 31.49 33.45 34.13 37.24 35.34 33.59 33.79 34.80 34.87 35.60 35.23 35.08 35.27
30.92 31.01 31.10 30.79 30.49 29.80 29.06 28.63 26.87 27.23 26.82 27.24 27.95 27.11 26.82 27.85 25.81 27.66 27.91 25.64 26.15 25.40 31.82 28.69 29.11 29.41 27.43 33.76 35.74 36.78 36.59 34.49 34.51 35.00 35.54 35.84 34.10 35.31
28.16 27.47 28.35 29.69 30.24 29.75 29.35 28.72 27.37 27.23 24.44 25.01 25.02 25.63 25.70 25.36 25.49 25.45 25.27 24.99 24.12 24.95 29.10 28.15 27.51 27.69 27.59 29.43 33.14 35.36 35.91 35.40 35.30 35.67 34.60 33.13 32.29 32.29
26.84 26.92 28.40 29.96 29.54 27.84 27.52 25.67 24.36 24.68 24.65 23.82 22.79 22.46 22.23 22.44 22.78 22.90 23.68 24.54 26.03 25.17 26.91 26.88 25.09 25.83 25.98 27.52 29.60 34.01 34.83 35.12 35.71 35.35 35.17 33.38 30.40 31.13
27.22 28.14 29.18 29.00 27.28 26.11 25.39 23.77 23.24 23.49 22.60 21.89 21.27 21.14 21.30 21.73 22.06 22.11 23.44 24.50 24.53 24.99 25.49 26.75 26.72 27.07 28.48 28.31 29.74 30.46 30.63 33.79 34.23 33.94 34.39 34.00 33.37 33.64
27.42 28.50 27.69 26.20 25.82 25.07 23.89 23.11 23.04 22.21 21.60 21.23 19.95 20.73 21.15 20.38 19.14 20.43 20.20 20.54 20.12 21.69 26.03 26.31 27.01 26.69 26.10 30.67 31.63 30.15 30.91 29.79 32.93 33.16 33.68 33.76 33.67 34.04
26.52 25.49 24.18 23.57 23.38 23.07 22.30 21.77 21.79 21.51 20.50 20.28 19.02 17.76 17.74 17.70 17.61 19.01 18.37 18.44 17.72 18.89 20.55 23.71 26.10 26.72 27.33 28.00 30.26 29.82 30.02 30.50 32.22 32.40 31.66 31.04 32.90 34.16
24.25 22.45 21.47 22.24 22.11 21.76 21.13 20.88 20.58 18.47 18.86 17.08 16.34 15.64 15.59 15.64 15.12 16.37 16.98 16.52 15.87 17.04 18.36 20.66 22.11 23.32 26.26 29.52 32.06 29.85 30.46 30.54 31.06 31.92 32.15 30.05 30.12 33.20
22.57 21.42 20.62 20.72 20.87 20.40 19.95 19.00 17.31 17.66 16.17 15.18 14.60 14.73 14.78 14.30 13.04 13.95 14.39 14.57 14.44 15.91 17.51 19.22 20.23 20.44 20.61 19.72 29.52 31.79 30.79 31.22 31.27 30.79 31.85 30.96 29.62 31.35
22.50 21.30 20.16 19.84 19.45 18.33 17.53 16.57 16.43 16.32 15.09 13.85 13.45 13.21 12.97 12.67 11.80 12.17 12.84 12.45 13.24 14.04 14.86 18.43 19.87 20.37 18.81 18.12 20.24 25.54 31.15 32.25 31.25 30.92 30.49 31.66 31.49 27.33
20.86 20.30 20.12 19.33 18.45 17.44 16.76 15.50 14.48 13.76 12.53 11.75 11.43 11.36 11.83 11.11 10.43 11.03 11.74 10.07 10.31 12.75 13.40 15.24 18.55 18.86 20.56 22.91 21.65 23.98 29.90 30.38 32.44 31.07 30.89 29.37 27.60 28.63
19.07 18.34 17.71 16.82 16.04 15.50 14.86 13.58 12.62 12.55 12.07 11.57 11.45 11.11 11.05 10.88 9.58 9.92 10.72 10.81 11.53 12.47 13.45 16.05 18.36 19.65 19.57 19.50 19.88 23.52 28.94 30.92 28.87 28.45 28.71 28.82 28.51 25.32
15.40 15.30 14.95 13.99 13.71 13.09 12.29 11.81 10.68 10.46 9.77 9.41 9.41 9.58 9.25 8.72 9.91 10.46 10.69 10.92 11.05 11.19 12.14 12.96 15.96 17.88 17.93 18.80 19.47 21.75 27.04 26.81 28.23 27.64 29.00 28.75 28.41 28.43